Time,TemperatureF,DewpointF,PressureIn,WindDirection,WindDirectionDegrees,WindSpeedMPH,WindSpeedGustMPH,Humidity,HourlyPrecipIn,Conditions,Clouds,dailyrainin,SolarRadiationWatts/m^2,SoftwareType,DateUTC
2013-10-29 00:01:00,38.6,29.3,30.48,ESE,113,3.0,6.0,69,0.00,,,0.00,0,Wunderground v.1.15,2013-10-29 05:01:00,
2013-10-29 00:04:00,38.6,29.3,30.48,East,90,3.0,6.0,69,0.00,,,0.00,0,Wunderground v.1.15,2013-10-29 05:04:00,
2013-10-29 00:05:00,38.5,29.2,30.47,East,90,2.0,6.0,69,0.00,,,0.00,0,Wunderground v.1.15,2013-10-29 05:05:00,
2013-10-29 00:07:00,38.5,29.2,30.47,East,90,2.0,6.0,69,0.00,,,0.00,0,Wunderground v.1.15,2013-10-29 05:07:00,
2013-10-29 00:09:00,38.5,29.2,30.47,East,90,1.0,6.0,69,0.00,,,0.00,0,Wunderground v.1.15,2013-10-29 05:09:00,
2013-10-29 00:11:00,38.5,29.2,30.47,East,90,1.0,1.0,69,0.00,,,0.00,0,Wunderground v.1.15,2013-10-29 05:11:00,
2013-10-29 00:12:00,38.4,29.1,30.47,East,90,0.0,1.0,69,0.00,,,0.00,0,Wunderground v.1.15,2013-10-29 05:12:00,
2013-10-29 00:14:00,38.4,29.1,30.47,East,90,0.0,1.0,69,0.00,,,0.00,0,Wunderground v.1.15,2013-10-29 05:14:00,
2013-10-29 00:15:00,38.4,29.1,30.47,East,90,0.0,1.0,69,0.00,,,0.00,0,Wunderground v.1.15,2013-10-29 05:15:00,
2013-10-29 00:17:00,38.4,29.1,30.47,East,90,0.0,1.0,69,0.00,,,0.00,0,Wunderground v.1.15,2013-10-29 05:17:00,
2013-10-29 00:19:00,38.4,29.1,30.47,NE,38,1.0,3.0,69,0.00,,,0.00,0,Wunderground v.1.15,2013-10-29 05:19:00,
2013-10-29 00:21:00,38.3,29.0,30.47,ENE,61,1.0,5.0,69,0.00,,,0.00,0,Wunderground v.1.15,2013-10-29 05:21:00,
2013-10-29 00:22:00,38.3,29.4,30.47,East,96,2.0,5.0,70,0.00,,,0.00,0,Wunderground v.1.15,2013-10-29 05:22:00,
2013-10-29 00:24:00,38.3,29.4,30.47,East,88,2.0,5.0,70,0.00,,,0.00,0,Wunderground v.1.15,2013-10-29 05:24:00,
2013-10-29 00:25:00,38.2,29.3,30.47,East,85,2.0,5.0,70,0.00,,,0.00,0,Wunderground v.1.15,2013-10-29 05:25:00,
2013-10-29 00:26:00,38.2,29.3,30.47,East,84,2.0,5.0,70,0.00,,,0.00,0,Wunderground v.1.15,2013-10-29 05:26:00,
2013-10-29 00:27:00,38.2,29.3,30.47,East,84,2.0,5.0,70,0.00,,,0.00,0,Wunderground v.1.15,2013-10-29 05:27:00,
2013-10-29 00:29:00,38.2,29.3,30.47,East,84,2.0,5.0,70,0.00,,,0.00,0,Wunderground v.1.15,2013-10-29 05:29:00,
2013-10-29 00:30:00,38.2,29.3,30.47,NNE,31,2.0,3.0,70,0.00,,,0.00,0,Wunderground v.1.15,2013-10-29 05:30:00,
2013-10-29 00:32:00,38.1,29.2,30.47,ENE,58,2.0,6.0,70,0.00,,,0.00,0,Wunderground v.1.15,2013-10-29 05:32:00,
2013-10-29 00:34:00,38.1,29.2,30.47,NE,49,3.0,6.0,70,0.00,,,0.00,0,Wunderground v.1.15,2013-10-29 05:34:00,
2013-10-29 00:36:00,37.9,29.0,30.47,NE,40,3.0,8.0,70,0.00,,,0.00,0,Wunderground v.1.15,2013-10-29 05:36:00,
2013-10-29 00:39:00,37.9,29.0,30.47,East,86,4.0,8.0,70,0.00,,,0.00,0,Wunderground v.1.15,2013-10-29 05:39:00,
2013-10-29 00:40:00,37.9,29.0,30.47,NE,50,5.0,5.0,70,0.00,,,0.00,0,Wunderground v.1.15,2013-10-29 05:40:00,
2013-10-29 00:41:00,37.8,29.2,30.48,East,92,5.0,5.0,71,0.00,,,0.00,0,Wunderground v.1.15,2013-10-29 05:41:00,
2013-10-29 00:45:00,37.8,29.2,30.47,East,100,4.0,5.0,71,0.00,,,0.00,0,Wunderground v.1.15,2013-10-29 05:45:00,
2013-10-29 00:47:00,37.8,29.2,30.47,ENE,69,3.0,5.0,71,0.00,,,0.00,0,Wunderground v.1.15,2013-10-29 05:47:00,
2013-10-29 00:48:00,37.7,29.1,30.47,East,93,3.0,5.0,71,0.00,,,0.00,0,Wunderground v.1.15,2013-10-29 05:48:00,
2013-10-29 00:51:00,37.7,29.1,30.47,ENE,75,4.0,4.0,71,0.00,,,0.00,0,Wunderground v.1.15,2013-10-29 05:51:00,
2013-10-29 00:52:00,37.7,29.1,30.48,ENE,67,4.0,4.0,71,0.00,,,0.00,0,Wunderground v.1.15,2013-10-29 05:52:00,
2013-10-29 00:53:00,37.7,29.1,30.48,ENE,67,4.0,4.0,71,0.00,,,0.00,0,Wunderground v.1.15,2013-10-29 05:53:00,
2013-10-29 00:55:00,37.7,29.1,30.48,East,96,4.0,4.0,71,0.00,,,0.00,0,Wunderground v.1.15,2013-10-29 05:55:00,
2013-10-29 00:56:00,37.7,29.1,30.48,East,96,3.0,4.0,71,0.00,,,0.00,0,Wunderground v.1.15,2013-10-29 05:56:00,
2013-10-29 00:59:00,37.7,29.1,30.48,ENE,57,3.0,4.0,71,0.00,,,0.00,0,Wunderground v.1.15,2013-10-29 05:59:00,
2013-10-29 01:02:00,37.7,29.1,30.48,ENE,58,2.0,3.0,71,0.00,,,0.00,0,Wunderground v.1.15,2013-10-29 06:02:00,
2013-10-29 01:04:00,37.7,29.1,30.48,NE,54,3.0,3.0,71,0.00,,,0.00,0,Wunderground v.1.15,2013-10-29 06:04:00,
2013-10-29 01:06:00,37.7,29.1,30.48,ENE,57,2.0,4.0,71,0.00,,,0.00,0,Wunderground v.1.15,2013-10-29 06:06:00,
2013-10-29 01:07:00,37.7,29.1,30.48,ENE,70,2.0,4.0,71,0.00,,,0.00,0,Wunderground v.1.15,2013-10-29 06:07:00,
2013-10-29 01:10:00,37.6,29.0,30.48,East,90,3.0,4.0,71,0.00,,,0.00,0,Wunderground v.1.15,2013-10-29 06:10:00,
2013-10-29 01:12:00,37.7,29.1,30.48,ENE,71,3.0,4.0,71,0.00,,,0.00,0,Wunderground v.1.15,2013-10-29 06:12:00,
2013-10-29 01:16:00,37.6,29.0,30.48,ENE,66,3.0,4.0,71,0.00,,,0.00,0,Wunderground v.1.15,2013-10-29 06:16:00,
2013-10-29 01:17:00,37.6,29.4,30.48,NE,51,2.0,4.0,72,0.00,,,0.00,0,Wunderground v.1.15,2013-10-29 06:17:00,
2013-10-29 01:20:00,37.6,29.0,30.48,ENE,65,3.0,3.0,71,0.00,,,0.00,0,Wunderground v.1.15,2013-10-29 06:20:00,
2013-10-29 01:22:00,37.5,28.9,30.48,East,84,3.0,3.0,71,0.00,,,0.00,0,Wunderground v.1.15,2013-10-29 06:22:00,
2013-10-29 01:25:00,37.5,29.3,30.48,NE,48,3.0,4.0,72,0.00,,,0.00,0,Wunderground v.1.15,2013-10-29 06:25:00,
2013-10-29 01:27:00,37.5,29.3,30.48,East,80,3.0,4.0,72,0.00,,,0.00,0,Wunderground v.1.15,2013-10-29 06:27:00,
2013-10-29 01:29:00,37.5,29.3,30.48,ENE,65,3.0,4.0,72,0.00,,,0.00,0,Wunderground v.1.15,2013-10-29 06:29:00,
2013-10-29 01:31:00,37.5,29.3,30.48,NNE,16,3.0,3.0,72,0.00,,,0.00,0,Wunderground v.1.15,2013-10-29 06:31:00,
2013-10-29 01:32:00,37.5,29.3,30.48,NE,40,3.0,4.0,72,0.00,,,0.00,0,Wunderground v.1.15,2013-10-29 06:32:00,
2013-10-29 01:34:00,37.5,29.3,30.48,NE,48,3.0,5.0,72,0.00,,,0.00,0,Wunderground v.1.15,2013-10-29 06:34:00,
2013-10-29 01:35:00,37.5,29.3,30.48,NE,43,4.0,5.0,72,0.00,,,0.00,0,Wunderground v.1.15,2013-10-29 06:35:00,
2013-10-29 01:39:00,37.4,29.2,30.47,NE,44,4.0,5.0,72,0.00,,,0.00,0,Wunderground v.1.15,2013-10-29 06:39:00,
2013-10-29 01:41:00,37.4,29.2,30.47,ENE,64,4.0,4.0,72,0.00,,,0.00,0,Wunderground v.1.15,2013-10-29 06:41:00,
2013-10-29 01:42:00,37.4,29.2,30.47,ENE,69,4.0,4.0,72,0.00,,,0.00,0,Wunderground v.1.15,2013-10-29 06:42:00,
2013-10-29 01:44:00,37.4,29.2,30.47,ENE,65,4.0,6.0,72,0.00,,,0.00,0,Wunderground v.1.15,2013-10-29 06:44:00,
2013-10-29 01:46:00,37.4,29.2,30.47,ENE,71,4.0,6.0,72,0.00,,,0.00,0,Wunderground v.1.15,2013-10-29 06:46:00,
2013-10-29 01:49:00,37.4,29.2,30.47,ENE,57,3.0,6.0,72,0.00,,,0.00,0,Wunderground v.1.15,2013-10-29 06:49:00,
2013-10-29 01:50:00,37.4,29.2,30.47,ENE,57,3.0,3.0,72,0.00,,,0.00,0,Wunderground v.1.15,2013-10-29 06:50:00,
2013-10-29 01:51:00,37.4,29.2,30.47,NE,53,3.0,3.0,72,0.00,,,0.00,0,Wunderground v.1.15,2013-10-29 06:51:00,
2013-10-29 01:52:00,37.3,29.1,30.47,NE,49,3.0,3.0,72,0.00,,,0.00,0,Wunderground v.1.15,2013-10-29 06:52:00,
2013-10-29 01:53:00,37.3,29.1,30.47,NE,49,3.0,3.0,72,0.00,,,0.00,0,Wunderground v.1.15,2013-10-29 06:53:00,
2013-10-29 01:54:00,37.3,29.1,30.47,ENE,57,3.0,3.0,72,0.00,,,0.00,0,Wunderground v.1.15,2013-10-29 06:54:00,
2013-10-29 01:57:00,37.3,29.1,30.47,NE,52,3.0,3.0,72,0.00,,,0.00,0,Wunderground v.1.15,2013-10-29 06:57:00,
2013-10-29 01:59:00,37.3,29.1,30.47,ENE,71,3.0,6.0,72,0.00,,,0.00,0,Wunderground v.1.15,2013-10-29 06:59:00,
2013-10-29 02:00:00,37.3,28.8,30.47,NE,51,3.0,8.0,71,0.00,,,0.00,0,Wunderground v.1.15,2013-10-29 07:00:00,
2013-10-29 02:02:00,37.3,28.8,30.47,NE,37,4.0,8.0,71,0.00,,,0.00,0,Wunderground v.1.15,2013-10-29 07:02:00,
2013-10-29 02:05:00,37.3,28.8,30.47,North,5,4.0,8.0,71,0.00,,,0.00,0,Wunderground v.1.15,2013-10-29 07:05:00,
2013-10-29 02:06:00,37.3,28.8,30.47,NE,36,4.0,8.0,71,0.00,,,0.00,0,Wunderground v.1.15,2013-10-29 07:06:00,
2013-10-29 02:07:00,37.3,28.8,30.47,ENE,57,4.0,8.0,71,0.00,,,0.00,0,Wunderground v.1.15,2013-10-29 07:07:00,
2013-10-29 02:08:00,37.3,28.8,30.47,East,84,4.0,8.0,71,0.00,,,0.00,0,Wunderground v.1.15,2013-10-29 07:08:00,
2013-10-29 02:14:00,37.2,28.7,30.47,ENE,71,3.0,4.0,71,0.00,,,0.00,0,Wunderground v.1.15,2013-10-29 07:14:00,
2013-10-29 02:19:00,37.2,28.7,30.47,ENE,63,2.0,4.0,71,0.00,,,0.00,0,Wunderground v.1.15,2013-10-29 07:19:00,
2013-10-29 02:21:00,37.2,28.7,30.47,ENE,63,2.0,2.0,71,0.00,,,0.00,0,Wunderground v.1.15,2013-10-29 07:21:00,
2013-10-29 02:23:00,37.2,28.7,30.47,ENE,62,1.0,2.0,71,0.00,,,0.00,0,Wunderground v.1.15,2013-10-29 07:23:00,
2013-10-29 02:25:00,37.2,28.7,30.47,ENE,57,1.0,5.0,71,0.00,,,0.00,0,Wunderground v.1.15,2013-10-29 07:25:00,
2013-10-29 02:27:00,37.2,28.7,30.47,NE,55,1.0,5.0,71,0.00,,,0.00,0,Wunderground v.1.15,2013-10-29 07:27:00,
2013-10-29 02:28:00,37.1,28.6,30.47,ENE,71,2.0,5.0,71,0.00,,,0.00,0,Wunderground v.1.15,2013-10-29 07:28:00,
2013-10-29 02:29:00,37.2,28.7,30.47,ENE,71,2.0,5.0,71,0.00,,,0.00,0,Wunderground v.1.15,2013-10-29 07:29:00,
2013-10-29 02:30:00,37.2,28.7,30.47,ENE,71,2.0,2.0,71,0.00,,,0.00,0,Wunderground v.1.15,2013-10-29 07:30:00,
2013-10-29 02:32:00,37.2,28.7,30.47,East,88,2.0,5.0,71,0.00,,,0.00,0,Wunderground v.1.15,2013-10-29 07:32:00,
2013-10-29 02:35:00,37.1,28.6,30.47,ENE,68,3.0,5.0,71,0.00,,,0.00,0,Wunderground v.1.15,2013-10-29 07:35:00,
2013-10-29 02:37:00,37.1,28.2,30.47,ENE,68,3.0,5.0,70,0.00,,,0.00,0,Wunderground v.1.15,2013-10-29 07:37:00,
2013-10-29 02:40:00,37.1,28.6,30.47,ENE,66,3.0,4.0,71,0.00,,,0.00,0,Wunderground v.1.15,2013-10-29 07:40:00,
2013-10-29 02:44:00,37.1,28.2,30.48,ENE,71,3.0,6.0,70,0.00,,,0.00,0,Wunderground v.1.15,2013-10-29 07:44:00,
2013-10-29 02:45:00,37.1,28.6,30.48,NE,41,3.0,6.0,71,0.00,,,0.00,0,Wunderground v.1.15,2013-10-29 07:45:00,
2013-10-29 02:46:00,37.1,28.6,30.48,NNE,31,3.0,6.0,71,0.00,,,0.00,0,Wunderground v.1.15,2013-10-29 07:46:00,
2013-10-29 02:48:00,37.1,28.2,30.48,NE,49,3.0,6.0,70,0.00,,,0.00,0,Wunderground v.1.15,2013-10-29 07:48:00,
2013-10-29 02:52:00,37.1,28.2,30.48,ENE,57,3.0,4.0,70,0.00,,,0.00,0,Wunderground v.1.15,2013-10-29 07:52:00,
2013-10-29 02:54:00,37.1,28.2,30.48,East,94,3.0,4.0,70,0.00,,,0.00,0,Wunderground v.1.15,2013-10-29 07:54:00,
2013-10-29 02:56:00,37.1,28.2,30.48,NE,42,4.0,6.0,70,0.00,,,0.00,0,Wunderground v.1.15,2013-10-29 07:56:00,
2013-10-29 02:59:00,37.1,28.2,30.48,ENE,61,3.0,6.0,70,0.00,,,0.00,0,Wunderground v.1.15,2013-10-29 07:59:00,
2013-10-29 03:00:00,37.1,28.2,30.47,NE,51,3.0,3.0,70,0.00,,,0.00,0,Wunderground v.1.15,2013-10-29 08:00:00,
2013-10-29 03:06:00,37.1,28.2,30.47,ESE,113,2.0,5.0,70,0.00,,,0.00,0,Wunderground v.1.15,2013-10-29 08:06:00,
2013-10-29 03:07:00,37.1,28.2,30.47,ENE,69,2.0,5.0,70,0.00,,,0.00,0,Wunderground v.1.15,2013-10-29 08:07:00,
2013-10-29 03:08:00,37.1,28.2,30.47,ENE,67,2.0,7.0,70,0.00,,,0.00,0,Wunderground v.1.15,2013-10-29 08:08:00,
2013-10-29 03:09:00,37.1,28.2,30.47,East,82,2.0,7.0,70,0.00,,,0.00,0,Wunderground v.1.15,2013-10-29 08:09:00,
2013-10-29 03:12:00,37.1,28.2,30.47,ENE,61,3.0,5.0,70,0.00,,,0.00,0,Wunderground v.1.15,2013-10-29 08:12:00,
2013-10-29 03:15:00,37.1,28.2,30.47,ESE,110,3.0,5.0,70,0.00,,,0.00,0,Wunderground v.1.15,2013-10-29 08:15:00,
2013-10-29 03:19:00,37.1,28.2,30.47,NNE,33,3.0,5.0,70,0.00,,,0.00,0,Wunderground v.1.15,2013-10-29 08:19:00,
2013-10-29 03:20:00,37.0,28.1,30.47,NE,38,3.0,3.0,70,0.00,,,0.00,0,Wunderground v.1.15,2013-10-29 08:20:00,
2013-10-29 03:22:00,37.0,28.1,30.47,NE,44,3.0,3.0,70,0.00,,,0.00,0,Wunderground v.1.15,2013-10-29 08:22:00,
2013-10-29 03:23:00,37.0,28.1,30.47,NE,45,3.0,3.0,70,0.00,,,0.00,0,Wunderground v.1.15,2013-10-29 08:23:00,
2013-10-29 03:25:00,37.1,28.2,30.47,NE,46,2.0,3.0,70,0.00,,,0.00,0,Wunderground v.1.15,2013-10-29 08:25:00,
2013-10-29 03:26:00,37.0,28.1,30.47,NE,46,2.0,3.0,70,0.00,,,0.00,0,Wunderground v.1.15,2013-10-29 08:26:00,
2013-10-29 03:29:00,37.0,28.1,30.47,NE,46,2.0,3.0,70,0.00,,,0.00,0,Wunderground v.1.15,2013-10-29 08:29:00,
2013-10-29 03:31:00,37.0,28.1,30.47,NE,46,1.0,2.0,70,0.00,,,0.00,0,Wunderground v.1.15,2013-10-29 08:31:00,
2013-10-29 03:34:00,37.0,28.1,30.47,NE,46,1.0,2.0,70,0.00,,,0.00,0,Wunderground v.1.15,2013-10-29 08:34:00,
2013-10-29 03:35:00,37.0,28.1,30.47,NE,49,1.0,2.0,70,0.00,,,0.00,0,Wunderground v.1.15,2013-10-29 08:35:00,
2013-10-29 03:36:00,37.0,28.1,30.47,NE,49,1.0,2.0,70,0.00,,,0.00,0,Wunderground v.1.15,2013-10-29 08:36:00,
2013-10-29 03:39:00,37.0,28.1,30.47,NE,49,1.0,2.0,70,0.00,,,0.00,0,Wunderground v.1.15,2013-10-29 08:39:00,
2013-10-29 03:41:00,37.0,28.1,30.47,NE,49,1.0,2.0,70,0.00,,,0.00,0,Wunderground v.1.15,2013-10-29 08:41:00,
2013-10-29 03:42:00,37.0,28.1,30.47,NE,49,1.0,2.0,70,0.00,,,0.00,0,Wunderground v.1.15,2013-10-29 08:42:00,
2013-10-29 03:43:00,37.0,28.1,30.47,NE,49,1.0,2.0,70,0.00,,,0.00,0,Wunderground v.1.15,2013-10-29 08:43:00,
2013-10-29 03:46:00,37.0,28.1,30.47,NE,49,1.0,3.0,70,0.00,,,0.00,0,Wunderground v.1.15,2013-10-29 08:46:00,
2013-10-29 03:47:00,37.0,28.1,30.47,NE,49,1.0,3.0,70,0.00,,,0.00,0,Wunderground v.1.15,2013-10-29 08:47:00,
2013-10-29 03:48:00,37.0,27.8,30.47,NE,49,1.0,3.0,69,0.00,,,0.00,0,Wunderground v.1.15,2013-10-29 08:48:00,
2013-10-29 03:50:00,37.0,27.8,30.47,ENE,57,1.0,2.0,69,0.00,,,0.00,0,Wunderground v.1.15,2013-10-29 08:50:00,
2013-10-29 03:51:00,37.0,27.8,30.47,ENE,57,1.0,2.0,69,0.00,,,0.00,0,Wunderground v.1.15,2013-10-29 08:51:00,
2013-10-29 03:54:00,37.0,27.8,30.47,ENE,57,1.0,2.0,69,0.00,,,0.00,0,Wunderground v.1.15,2013-10-29 08:54:00,
2013-10-29 03:55:00,37.0,27.8,30.47,ENE,57,1.0,2.0,69,0.00,,,0.00,0,Wunderground v.1.15,2013-10-29 08:55:00,
2013-10-29 03:56:00,37.0,27.8,30.47,ENE,57,1.0,2.0,69,0.00,,,0.00,0,Wunderground v.1.15,2013-10-29 08:56:00,
2013-10-29 03:57:00,37.0,27.8,30.46,ENE,57,1.0,2.0,69,0.00,,,0.00,0,Wunderground v.1.15,2013-10-29 08:57:00,
2013-10-29 03:59:00,37.0,27.8,30.46,North,5,2.0,3.0,69,0.00,,,0.00,0,Wunderground v.1.15,2013-10-29 08:59:00,
2013-10-29 04:01:00,37.0,27.8,30.46,East,80,2.0,4.0,69,0.00,,,0.00,0,Wunderground v.1.15,2013-10-29 09:01:00,
2013-10-29 04:02:00,37.0,27.8,30.46,ENE,72,2.0,4.0,69,0.00,,,0.00,0,Wunderground v.1.15,2013-10-29 09:02:00,
2013-10-29 04:04:00,36.9,27.7,30.46,ENE,63,2.0,4.0,69,0.00,,,0.00,0,Wunderground v.1.15,2013-10-29 09:04:00,
2013-10-29 04:06:00,37.0,28.1,30.46,ENE,63,2.0,4.0,70,0.00,,,0.00,0,Wunderground v.1.15,2013-10-29 09:06:00,
2013-10-29 04:07:00,37.0,28.1,30.46,ENE,63,3.0,4.0,70,0.00,,,0.00,0,Wunderground v.1.15,2013-10-29 09:07:00,
2013-10-29 04:08:00,37.0,28.1,30.46,ENE,63,2.0,4.0,70,0.00,,,0.00,0,Wunderground v.1.15,2013-10-29 09:08:00,
2013-10-29 04:09:00,36.9,28.0,30.46,ENE,63,2.0,4.0,70,0.00,,,0.00,0,Wunderground v.1.15,2013-10-29 09:09:00,
2013-10-29 04:10:00,36.9,28.0,30.46,ENE,63,2.0,3.0,70,0.00,,,0.00,0,Wunderground v.1.15,2013-10-29 09:10:00,
2013-10-29 04:14:00,36.9,27.7,30.47,ENE,63,2.0,3.0,69,0.00,,,0.00,0,Wunderground v.1.15,2013-10-29 09:14:00,
2013-10-29 04:16:00,36.9,28.0,30.47,ENE,63,1.0,3.0,70,0.00,,,0.00,0,Wunderground v.1.15,2013-10-29 09:16:00,
2013-10-29 04:17:00,37.0,28.1,30.47,ENE,63,1.0,3.0,70,0.00,,,0.00,0,Wunderground v.1.15,2013-10-29 09:17:00,
2013-10-29 04:19:00,36.9,27.7,30.46,ENE,63,2.0,3.0,69,0.00,,,0.00,0,Wunderground v.1.15,2013-10-29 09:19:00,
2013-10-29 04:22:00,36.9,27.7,30.46,NE,55,2.0,3.0,69,0.00,,,0.00,0,Wunderground v.1.15,2013-10-29 09:22:00,
2013-10-29 04:24:00,36.9,27.7,30.46,NE,56,2.0,3.0,69,0.00,,,0.00,0,Wunderground v.1.15,2013-10-29 09:24:00,
2013-10-29 04:26:00,36.9,27.7,30.46,NE,35,3.0,3.0,69,0.00,,,0.00,0,Wunderground v.1.15,2013-10-29 09:26:00,
2013-10-29 04:27:00,36.9,27.7,30.46,ENE,62,3.0,3.0,69,0.00,,,0.00,0,Wunderground v.1.15,2013-10-29 09:27:00,
2013-10-29 04:30:00,36.9,27.7,30.46,ENE,76,3.0,3.0,69,0.00,,,0.00,0,Wunderground v.1.15,2013-10-29 09:30:00,
2013-10-29 04:34:00,36.9,27.7,30.46,NNE,29,3.0,4.0,69,0.00,,,0.00,0,Wunderground v.1.15,2013-10-29 09:34:00,
2013-10-29 04:36:00,36.9,27.7,30.46,NE,37,3.0,4.0,69,0.00,,,0.00,0,Wunderground v.1.15,2013-10-29 09:36:00,
2013-10-29 04:38:00,36.9,27.7,30.46,NE,42,3.0,5.0,69,0.00,,,0.00,0,Wunderground v.1.15,2013-10-29 09:38:00,
2013-10-29 04:39:00,36.9,27.7,30.46,ENE,58,3.0,5.0,69,0.00,,,0.00,0,Wunderground v.1.15,2013-10-29 09:39:00,
2013-10-29 04:40:00,36.9,27.7,30.45,NE,49,3.0,3.0,69,0.00,,,0.00,0,Wunderground v.1.15,2013-10-29 09:40:00,
2013-10-29 04:44:00,36.9,27.7,30.45,ENE,63,3.0,5.0,69,0.00,,,0.00,0,Wunderground v.1.15,2013-10-29 09:44:00,
2013-10-29 04:46:00,36.9,27.7,30.46,NE,51,3.0,5.0,69,0.00,,,0.00,0,Wunderground v.1.15,2013-10-29 09:46:00,
2013-10-29 04:50:00,36.8,27.6,30.46,NE,51,4.0,4.0,69,0.00,,,0.00,0,Wunderground v.1.15,2013-10-29 09:50:00,
2013-10-29 04:51:00,36.8,27.6,30.46,NE,40,4.0,4.0,69,0.00,,,0.00,0,Wunderground v.1.15,2013-10-29 09:51:00,
2013-10-29 04:52:00,36.8,27.6,30.46,ENE,61,4.0,4.0,69,0.00,,,0.00,0,Wunderground v.1.15,2013-10-29 09:52:00,
2013-10-29 04:54:00,36.8,27.6,30.46,ENE,57,4.0,4.0,69,0.00,,,0.00,0,Wunderground v.1.15,2013-10-29 09:54:00,
2013-10-29 04:55:00,36.8,27.6,30.46,ENE,68,4.0,5.0,69,0.00,,,0.00,0,Wunderground v.1.15,2013-10-29 09:55:00,
2013-10-29 04:57:00,36.8,27.9,30.46,NNE,24,4.0,5.0,70,0.00,,,0.00,0,Wunderground v.1.15,2013-10-29 09:57:00,
2013-10-29 05:00:00,36.8,27.6,30.46,East,98,4.0,5.0,69,0.00,,,0.00,0,Wunderground v.1.15,2013-10-29 10:00:00,
2013-10-29 05:01:00,36.8,27.6,30.46,NE,49,4.0,5.0,69,0.00,,,0.00,0,Wunderground v.1.15,2013-10-29 10:01:00,
2013-10-29 05:02:00,36.8,27.6,30.46,NE,54,4.0,6.0,69,0.00,,,0.00,0,Wunderground v.1.15,2013-10-29 10:02:00,
2013-10-29 05:07:00,36.8,27.6,30.46,ENE,58,5.0,6.0,69,0.00,,,0.00,0,Wunderground v.1.15,2013-10-29 10:07:00,
2013-10-29 05:09:00,36.8,27.6,30.46,NE,44,5.0,6.0,69,0.00,,,0.00,0,Wunderground v.1.15,2013-10-29 10:09:00,
2013-10-29 05:10:00,36.8,27.6,30.46,NE,44,4.0,4.0,69,0.00,,,0.00,0,Wunderground v.1.15,2013-10-29 10:10:00,
2013-10-29 05:15:00,36.8,27.6,30.46,ENE,59,2.0,4.0,69,0.00,,,0.00,0,Wunderground v.1.15,2013-10-29 10:15:00,
2013-10-29 05:16:00,36.8,27.6,30.46,NE,55,2.0,4.0,69,0.00,,,0.00,0,Wunderground v.1.15,2013-10-29 10:16:00,
2013-10-29 05:19:00,36.8,27.6,30.46,NE,55,2.0,4.0,69,0.00,,,0.00,0,Wunderground v.1.15,2013-10-29 10:19:00,
2013-10-29 05:20:00,36.8,27.6,30.46,NE,44,2.0,3.0,69,0.00,,,0.00,0,Wunderground v.1.15,2013-10-29 10:20:00,
2013-10-29 05:21:00,36.8,27.6,30.46,NE,44,2.0,3.0,69,0.00,,,0.00,0,Wunderground v.1.15,2013-10-29 10:21:00,
2013-10-29 05:22:00,36.8,27.6,30.46,NNE,30,2.0,3.0,69,0.00,,,0.00,0,Wunderground v.1.15,2013-10-29 10:22:00,
2013-10-29 05:23:00,36.8,27.6,30.46,NE,45,2.0,3.0,69,0.00,,,0.00,0,Wunderground v.1.15,2013-10-29 10:23:00,
2013-10-29 05:26:00,36.8,27.6,30.46,NE,42,2.0,3.0,69,0.00,,,0.00,0,Wunderground v.1.15,2013-10-29 10:26:00,
2013-10-29 05:27:00,36.8,27.6,30.46,NE,54,2.0,3.0,69,0.00,,,0.00,0,Wunderground v.1.15,2013-10-29 10:27:00,
2013-10-29 05:29:00,36.8,27.6,30.46,North,5,3.0,4.0,69,0.00,,,0.00,0,Wunderground v.1.15,2013-10-29 10:29:00,
2013-10-29 05:31:00,36.8,27.6,30.46,North,9,3.0,5.0,69,0.00,,,0.00,0,Wunderground v.1.15,2013-10-29 10:31:00,
2013-10-29 05:32:00,36.8,27.6,30.46,NNE,18,3.0,5.0,69,0.00,,,0.00,0,Wunderground v.1.15,2013-10-29 10:32:00,
2013-10-29 05:34:00,36.8,27.6,30.46,NE,43,3.0,5.0,69,0.00,,,0.00,0,Wunderground v.1.15,2013-10-29 10:34:00,
2013-10-29 05:35:00,36.8,27.6,30.46,NE,55,3.0,6.0,69,0.00,,,0.00,0,Wunderground v.1.15,2013-10-29 10:35:00,
2013-10-29 05:37:00,36.7,27.5,30.46,NE,38,3.0,6.0,69,0.00,,,0.00,0,Wunderground v.1.15,2013-10-29 10:37:00,
2013-10-29 05:41:00,36.7,27.8,30.46,ENE,72,4.0,5.0,70,0.00,,,0.00,0,Wunderground v.1.15,2013-10-29 10:41:00,
2013-10-29 05:42:00,36.7,27.5,30.46,ENE,71,4.0,5.0,69,0.00,,,0.00,0,Wunderground v.1.15,2013-10-29 10:42:00,
2013-10-29 05:44:00,36.7,27.8,30.46,ENE,59,4.0,5.0,70,0.00,,,0.00,0,Wunderground v.1.15,2013-10-29 10:44:00,
2013-10-29 05:45:00,36.7,27.8,30.46,ENE,71,3.0,5.0,70,0.00,,,0.00,0,Wunderground v.1.15,2013-10-29 10:45:00,
2013-10-29 05:46:00,36.7,27.8,30.46,NE,56,3.0,5.0,70,0.00,,,0.00,0,Wunderground v.1.15,2013-10-29 10:46:00,
2013-10-29 05:47:00,36.7,27.8,30.46,NE,56,3.0,5.0,70,0.00,,,0.00,0,Wunderground v.1.15,2013-10-29 10:47:00,
2013-10-29 05:49:00,36.7,27.8,30.46,NE,55,3.0,5.0,70,0.00,,,0.00,0,Wunderground v.1.15,2013-10-29 10:49:00,
2013-10-29 05:51:00,36.7,27.8,30.46,ENE,73,2.0,5.0,70,0.00,,,0.00,0,Wunderground v.1.15,2013-10-29 10:51:00,
2013-10-29 05:54:00,36.7,27.8,30.46,NE,43,3.0,5.0,70,0.00,,,0.00,0,Wunderground v.1.15,2013-10-29 10:54:00,
2013-10-29 05:55:00,36.6,27.7,30.46,ENE,59,3.0,5.0,70,0.00,,,0.00,0,Wunderground v.1.15,2013-10-29 10:55:00,
2013-10-29 05:56:00,36.7,27.8,30.46,ENE,60,3.0,5.0,70,0.00,,,0.00,0,Wunderground v.1.15,2013-10-29 10:56:00,
2013-10-29 05:58:00,36.7,27.8,30.46,ENE,72,3.0,5.0,70,0.00,,,0.00,0,Wunderground v.1.15,2013-10-29 10:58:00,
2013-10-29 06:00:00,36.6,27.7,30.46,ENE,63,3.0,5.0,70,0.00,,,0.00,0,Wunderground v.1.15,2013-10-29 11:00:00,
2013-10-29 06:02:00,36.6,27.7,30.46,ENE,59,3.0,5.0,70,0.00,,,0.00,0,Wunderground v.1.15,2013-10-29 11:02:00,
2013-10-29 06:04:00,36.6,27.7,30.46,East,82,3.0,5.0,70,0.00,,,0.00,0,Wunderground v.1.15,2013-10-29 11:04:00,
2013-10-29 06:05:00,36.6,27.7,30.46,ESE,102,3.0,5.0,70,0.00,,,0.00,0,Wunderground v.1.15,2013-10-29 11:05:00,
2013-10-29 06:06:00,36.6,27.7,30.46,ENE,75,3.0,5.0,70,0.00,,,0.00,0,Wunderground v.1.15,2013-10-29 11:06:00,
2013-10-29 06:07:00,36.6,27.7,30.46,ENE,63,3.0,5.0,70,0.00,,,0.00,0,Wunderground v.1.15,2013-10-29 11:07:00,
2013-10-29 06:08:00,36.6,27.7,30.46,ENE,68,3.0,5.0,70,0.00,,,0.00,0,Wunderground v.1.15,2013-10-29 11:08:00,
2013-10-29 06:12:00,36.5,27.6,30.45,ENE,71,3.0,3.0,70,0.00,,,0.00,0,Wunderground v.1.15,2013-10-29 11:12:00,
2013-10-29 06:14:00,36.5,27.6,30.45,NE,44,3.0,4.0,70,0.00,,,0.00,0,Wunderground v.1.15,2013-10-29 11:14:00,
2013-10-29 06:16:00,36.5,27.6,30.45,NNE,13,3.0,7.0,70,0.00,,,0.00,0,Wunderground v.1.15,2013-10-29 11:16:00,
2013-10-29 06:19:00,36.5,27.6,30.45,NE,45,4.0,7.0,70,0.00,,,0.00,0,Wunderground v.1.15,2013-10-29 11:19:00,
2013-10-29 06:20:00,36.5,27.6,30.45,NE,42,4.0,4.0,70,0.00,,,0.00,0,Wunderground v.1.15,2013-10-29 11:20:00,
2013-10-29 06:21:00,36.4,27.5,30.45,NNE,24,5.0,5.0,70,0.00,,,0.00,0,Wunderground v.1.15,2013-10-29 11:21:00,
2013-10-29 06:24:00,36.4,27.5,30.45,NNE,25,4.0,5.0,70,0.00,,,0.00,0,Wunderground v.1.15,2013-10-29 11:24:00,
2013-10-29 06:25:00,36.4,27.9,30.45,NNE,30,4.0,5.0,71,0.00,,,0.00,0,Wunderground v.1.15,2013-10-29 11:25:00,
2013-10-29 06:28:00,36.4,27.9,30.44,NNE,30,3.0,5.0,71,0.00,,,0.00,0,Wunderground v.1.15,2013-10-29 11:28:00,
2013-10-29 06:29:00,36.4,27.5,30.44,NNE,30,3.0,5.0,70,0.00,,,0.00,0,Wunderground v.1.15,2013-10-29 11:29:00,
2013-10-29 06:30:00,36.4,27.5,30.44,NNE,30,3.0,3.0,70,0.00,,,0.00,0,Wunderground v.1.15,2013-10-29 11:30:00,
2013-10-29 06:33:00,36.4,27.5,30.44,ENE,62,2.0,4.0,70,0.00,,,0.00,0,Wunderground v.1.15,2013-10-29 11:33:00,
2013-10-29 06:35:00,36.4,27.9,30.44,NE,46,3.0,4.0,71,0.00,,,0.00,0,Wunderground v.1.15,2013-10-29 11:35:00,
2013-10-29 06:37:00,36.4,27.9,30.44,NNE,28,2.0,4.0,71,0.00,,,0.00,0,Wunderground v.1.15,2013-10-29 11:37:00,
2013-10-29 06:39:00,36.4,27.9,30.44,NE,46,2.0,4.0,71,0.00,,,0.00,0,Wunderground v.1.15,2013-10-29 11:39:00,
2013-10-29 06:42:00,36.4,27.9,30.43,NNE,25,3.0,4.0,71,0.00,,,0.00,0,Wunderground v.1.15,2013-10-29 11:42:00,
2013-10-29 06:44:00,36.3,27.8,30.43,NE,38,3.0,6.0,71,0.00,,,0.00,0,Wunderground v.1.15,2013-10-29 11:44:00,
2013-10-29 06:45:00,36.4,27.9,30.43,NE,43,3.0,6.0,71,0.00,,,0.00,0,Wunderground v.1.15,2013-10-29 11:45:00,
2013-10-29 06:46:00,36.4,27.9,30.43,ENE,59,3.0,6.0,71,0.00,,,0.00,0,Wunderground v.1.15,2013-10-29 11:46:00,
2013-10-29 06:47:00,36.3,27.8,30.43,NE,42,3.0,6.0,71,0.00,,,0.00,0,Wunderground v.1.15,2013-10-29 11:47:00,
2013-10-29 06:49:00,36.3,27.8,30.43,NE,38,3.0,6.0,71,0.00,,,0.00,0,Wunderground v.1.15,2013-10-29 11:49:00,
2013-10-29 06:50:00,36.3,27.8,30.44,ENE,61,3.0,3.0,71,0.00,,,0.00,0,Wunderground v.1.15,2013-10-29 11:50:00,
2013-10-29 06:52:00,36.3,27.8,30.44,ENE,60,3.0,3.0,71,0.00,,,0.00,0,Wunderground v.1.15,2013-10-29 11:52:00,
2013-10-29 06:53:00,36.3,27.8,30.43,ENE,60,3.0,3.0,71,0.00,,,0.00,0,Wunderground v.1.15,2013-10-29 11:53:00,
2013-10-29 06:54:00,36.3,27.8,30.43,ENE,60,2.0,3.0,71,0.00,,,0.00,0,Wunderground v.1.15,2013-10-29 11:54:00,
2013-10-29 06:55:00,36.3,27.8,30.44,NNE,17,2.0,3.0,71,0.00,,,0.00,0,Wunderground v.1.15,2013-10-29 11:55:00,
2013-10-29 06:56:00,36.3,27.8,30.44,NNE,17,2.0,3.0,71,0.00,,,0.00,0,Wunderground v.1.15,2013-10-29 11:56:00,
2013-10-29 06:57:00,36.3,27.8,30.44,NNE,17,1.0,3.0,71,0.00,,,0.00,0,Wunderground v.1.15,2013-10-29 11:57:00,
2013-10-29 07:00:00,36.3,27.8,30.44,NE,38,1.0,2.0,71,0.00,,,0.00,0,Wunderground v.1.15,2013-10-29 12:00:00,
2013-10-29 07:01:00,36.3,27.8,30.44,NNE,26,1.0,5.0,71,0.00,,,0.00,0,Wunderground v.1.15,2013-10-29 12:01:00,
2013-10-29 07:04:00,36.2,27.7,30.44,SE,144,2.0,5.0,71,0.00,,,0.00,0,Wunderground v.1.15,2013-10-29 12:04:00,
2013-10-29 07:07:00,36.2,27.7,30.44,NNE,33,2.0,5.0,71,0.00,,,0.00,0,Wunderground v.1.15,2013-10-29 12:07:00,
2013-10-29 07:09:00,36.2,27.7,30.44,ENE,57,2.0,5.0,71,0.00,,,0.00,0,Wunderground v.1.15,2013-10-29 12:09:00,
2013-10-29 07:10:00,36.2,28.0,30.44,NE,46,2.0,5.0,72,0.00,,,0.00,0,Wunderground v.1.15,2013-10-29 12:10:00,
2013-10-29 07:14:00,36.2,27.7,30.44,NE,51,2.0,5.0,71,0.00,,,0.00,0,Wunderground v.1.15,2013-10-29 12:14:00,
2013-10-29 07:15:00,36.2,28.0,30.44,NE,51,2.0,5.0,72,0.00,,,0.00,0,Wunderground v.1.15,2013-10-29 12:15:00,
2013-10-29 07:16:00,36.2,28.0,30.44,NE,51,2.0,5.0,72,0.00,,,0.00,0,Wunderground v.1.15,2013-10-29 12:16:00,
2013-10-29 07:19:00,36.2,28.0,30.44,East,101,2.0,5.0,72,0.00,,,0.00,0,Wunderground v.1.15,2013-10-29 12:19:00,
2013-10-29 07:22:00,36.2,28.0,30.44,ESE,103,1.0,4.0,72,0.00,,,0.00,0,Wunderground v.1.15,2013-10-29 12:22:00,
2013-10-29 07:24:00,36.2,28.0,30.44,East,82,2.0,4.0,72,0.00,,,0.00,0,Wunderground v.1.15,2013-10-29 12:24:00,
2013-10-29 07:25:00,36.2,28.0,30.43,East,82,2.0,4.0,72,0.00,,,0.00,0,Wunderground v.1.15,2013-10-29 12:25:00,
2013-10-29 07:26:00,36.2,28.0,30.44,NE,51,2.0,5.0,72,0.00,,,0.00,0,Wunderground v.1.15,2013-10-29 12:26:00,
2013-10-29 07:29:00,36.2,28.0,30.44,ENE,71,2.0,5.0,72,0.00,,,0.00,0,Wunderground v.1.15,2013-10-29 12:29:00,
2013-10-29 07:31:00,36.2,28.0,30.44,ENE,71,3.0,3.0,72,0.00,,,0.00,0,Wunderground v.1.15,2013-10-29 12:31:00,
2013-10-29 07:32:00,36.2,28.0,30.44,ENE,71,3.0,3.0,72,0.00,,,0.00,0,Wunderground v.1.15,2013-10-29 12:32:00,
2013-10-29 07:33:00,36.2,28.0,30.43,ENE,71,3.0,3.0,72,0.00,,,0.00,0,Wunderground v.1.15,2013-10-29 12:33:00,
2013-10-29 07:35:00,36.2,28.0,30.44,NNE,27,3.0,4.0,72,0.00,,,0.00,0,Wunderground v.1.15,2013-10-29 12:35:00,
2013-10-29 07:39:00,36.2,28.0,30.44,NE,54,3.0,5.0,72,0.00,,,0.00,0,Wunderground v.1.15,2013-10-29 12:39:00,
2013-10-29 07:40:00,36.2,28.0,30.43,NE,48,3.0,4.0,72,0.00,,,0.00,0,Wunderground v.1.15,2013-10-29 12:40:00,
2013-10-29 07:41:00,36.2,28.0,30.43,NE,56,3.0,5.0,72,0.00,,,0.00,0,Wunderground v.1.15,2013-10-29 12:41:00,
2013-10-29 07:44:00,36.1,27.9,30.43,ENE,59,4.0,5.0,72,0.00,,,0.00,0,Wunderground v.1.15,2013-10-29 12:44:00,
2013-10-29 07:47:00,36.1,28.3,30.43,ENE,59,4.0,5.0,73,0.00,,,0.00,5,Wunderground v.1.15,2013-10-29 12:47:00,
2013-10-29 07:48:00,36.1,28.3,30.43,ENE,62,3.0,5.0,73,0.00,,,0.00,5,Wunderground v.1.15,2013-10-29 12:48:00,
2013-10-29 07:49:00,36.1,28.3,30.43,ENE,62,3.0,5.0,73,0.00,,,0.00,5,Wunderground v.1.15,2013-10-29 12:49:00,
2013-10-29 07:50:00,36.1,28.3,30.43,ENE,62,3.0,3.0,73,0.00,,,0.00,7,Wunderground v.1.15,2013-10-29 12:50:00,
2013-10-29 07:52:00,36.1,28.3,30.43,ENE,76,2.0,4.0,73,0.00,,,0.00,7,Wunderground v.1.15,2013-10-29 12:52:00,
2013-10-29 07:53:00,36.1,28.3,30.43,ENE,76,2.0,4.0,73,0.00,,,0.00,7,Wunderground v.1.15,2013-10-29 12:53:00,
2013-10-29 07:55:00,36.2,28.4,30.43,ENE,76,1.0,4.0,73,0.00,,,0.00,9,Wunderground v.1.15,2013-10-29 12:55:00,
2013-10-29 07:59:00,36.2,28.4,30.43,ENE,76,1.0,4.0,73,0.00,,,0.00,16,Wunderground v.1.15,2013-10-29 12:59:00,
2013-10-29 08:00:00,36.2,28.4,30.43,ENE,76,1.0,1.0,73,0.00,,,0.00,16,Wunderground v.1.15,2013-10-29 13:00:00,
2013-10-29 08:01:00,36.2,28.4,30.43,SE,138,1.0,6.0,73,0.00,,,0.00,14,Wunderground v.1.15,2013-10-29 13:01:00,
2013-10-29 08:02:00,36.2,28.4,30.43,SE,134,1.0,6.0,73,0.00,,,0.00,12,Wunderground v.1.15,2013-10-29 13:02:00,
2013-10-29 08:06:00,36.2,28.4,30.43,ENE,69,2.0,6.0,73,0.00,,,0.00,14,Wunderground v.1.15,2013-10-29 13:06:00,
2013-10-29 08:07:00,36.2,28.4,30.43,ENE,67,2.0,6.0,73,0.00,,,0.00,14,Wunderground v.1.15,2013-10-29 13:07:00,
2013-10-29 08:11:00,36.2,28.4,30.43,NE,46,3.0,4.0,73,0.00,,,0.00,18,Wunderground v.1.15,2013-10-29 13:11:00,
2013-10-29 08:12:00,36.2,28.4,30.43,ENE,66,3.0,4.0,73,0.00,,,0.00,18,Wunderground v.1.15,2013-10-29 13:12:00,
2013-10-29 08:14:00,36.2,28.4,30.43,NE,53,2.0,5.0,73,0.00,,,0.00,18,Wunderground v.1.15,2013-10-29 13:14:00,
2013-10-29 08:15:00,36.2,28.4,30.43,NE,46,2.0,5.0,73,0.00,,,0.00,18,Wunderground v.1.15,2013-10-29 13:15:00,
2013-10-29 08:17:00,36.2,28.4,30.43,NE,50,2.0,5.0,73,0.00,,,0.00,19,Wunderground v.1.15,2013-10-29 13:17:00,
2013-10-29 08:19:00,36.2,28.7,30.43,NE,42,2.0,5.0,74,0.00,,,0.00,19,Wunderground v.1.15,2013-10-29 13:19:00,
2013-10-29 08:21:00,36.2,28.7,30.43,NE,42,2.0,2.0,74,0.00,,,0.00,19,Wunderground v.1.15,2013-10-29 13:21:00,
2013-10-29 08:22:00,36.2,28.7,30.43,NE,42,2.0,2.0,74,0.00,,,0.00,21,Wunderground v.1.15,2013-10-29 13:22:00,
2013-10-29 08:24:00,36.3,28.8,30.43,NE,42,2.0,2.0,74,0.00,,,0.00,23,Wunderground v.1.15,2013-10-29 13:24:00,
2013-10-29 08:25:00,36.3,28.8,30.43,NE,42,2.0,2.0,74,0.00,,,0.00,23,Wunderground v.1.15,2013-10-29 13:25:00,
2013-10-29 08:26:00,36.3,28.8,30.43,NE,42,2.0,2.0,74,0.00,,,0.00,25,Wunderground v.1.15,2013-10-29 13:26:00,
2013-10-29 08:30:00,36.3,28.8,30.44,SE,131,1.0,6.0,74,0.00,,,0.00,26,Wunderground v.1.15,2013-10-29 13:30:00,
2013-10-29 08:31:00,36.3,28.8,30.43,SE,131,1.0,6.0,74,0.00,,,0.00,28,Wunderground v.1.15,2013-10-29 13:31:00,
2013-10-29 08:33:00,36.4,28.9,30.44,SE,128,1.0,6.0,74,0.00,,,0.00,28,Wunderground v.1.15,2013-10-29 13:33:00,
2013-10-29 08:34:00,36.4,28.9,30.44,SE,128,1.0,6.0,74,0.00,,,0.00,30,Wunderground v.1.15,2013-10-29 13:34:00,
2013-10-29 08:37:00,36.5,29.0,30.43,SE,125,1.0,6.0,74,0.00,,,0.00,30,Wunderground v.1.15,2013-10-29 13:37:00,
2013-10-29 08:39:00,36.5,29.0,30.44,SE,125,1.0,6.0,74,0.00,,,0.00,32,Wunderground v.1.15,2013-10-29 13:39:00,
2013-10-29 08:41:00,36.5,29.0,30.44,ESE,121,1.0,4.0,74,0.00,,,0.00,35,Wunderground v.1.15,2013-10-29 13:41:00,
2013-10-29 08:42:00,36.6,29.1,30.44,ESE,121,1.0,4.0,74,0.00,,,0.00,35,Wunderground v.1.15,2013-10-29 13:42:00,
2013-10-29 08:44:00,36.6,29.1,30.43,ESE,121,1.0,4.0,74,0.00,,,0.00,39,Wunderground v.1.15,2013-10-29 13:44:00,
2013-10-29 08:45:00,36.6,29.1,30.43,NE,39,1.0,4.0,74,0.00,,,0.00,40,Wunderground v.1.15,2013-10-29 13:45:00,
2013-10-29 08:46:00,36.6,29.1,30.43,NNE,28,2.0,4.0,74,0.00,,,0.00,40,Wunderground v.1.15,2013-10-29 13:46:00,
2013-10-29 08:47:00,36.6,29.1,30.43,NNE,33,2.0,4.0,74,0.00,,,0.00,40,Wunderground v.1.15,2013-10-29 13:47:00,
2013-10-29 08:49:00,36.6,29.1,30.44,ENE,59,2.0,4.0,74,0.00,,,0.00,42,Wunderground v.1.15,2013-10-29 13:49:00,
2013-10-29 08:50:00,36.7,29.5,30.44,ENE,60,2.0,4.0,75,0.00,,,0.00,44,Wunderground v.1.15,2013-10-29 13:50:00,
2013-10-29 08:51:00,36.7,29.5,30.44,East,82,2.0,4.0,75,0.00,,,0.00,44,Wunderground v.1.15,2013-10-29 13:51:00,
2013-10-29 08:54:00,36.7,29.2,30.44,East,90,3.0,4.0,74,0.00,,,0.00,47,Wunderground v.1.15,2013-10-29 13:54:00,
2013-10-29 08:56:00,36.7,29.2,30.44,NE,37,3.0,4.0,74,0.00,,,0.00,49,Wunderground v.1.15,2013-10-29 13:56:00,
2013-10-29 08:57:00,36.8,29.3,30.44,NE,37,2.0,4.0,74,0.00,,,0.00,51,Wunderground v.1.15,2013-10-29 13:57:00,
2013-10-29 08:59:00,36.8,29.6,30.44,NE,37,2.0,4.0,75,0.00,,,0.00,56,Wunderground v.1.15,2013-10-29 13:59:00,
2013-10-29 09:01:00,36.8,29.6,30.44,East,96,2.0,4.0,75,0.00,,,0.00,65,Wunderground v.1.15,2013-10-29 14:01:00,
2013-10-29 09:02:00,36.9,29.7,30.43,East,96,2.0,4.0,75,0.00,,,0.00,69,Wunderground v.1.15,2013-10-29 14:02:00,
2013-10-29 09:04:00,36.9,29.7,30.43,East,96,2.0,4.0,75,0.00,,,0.00,70,Wunderground v.1.15,2013-10-29 14:04:00,
2013-10-29 09:06:00,37.0,29.8,30.43,East,95,1.0,4.0,75,0.00,,,0.00,69,Wunderground v.1.15,2013-10-29 14:06:00,
2013-10-29 09:07:00,37.0,29.8,30.43,ESE,113,1.0,5.0,75,0.00,,,0.00,69,Wunderground v.1.15,2013-10-29 14:07:00,
2013-10-29 09:08:00,37.0,29.5,30.43,SE,143,1.0,5.0,74,0.00,,,0.00,69,Wunderground v.1.15,2013-10-29 14:08:00,
2013-10-29 09:14:00,37.1,29.6,30.43,ENE,77,1.0,3.0,74,0.00,,,0.00,86,Wunderground v.1.15,2013-10-29 14:14:00,
2013-10-29 09:15:00,37.1,29.9,30.43,ENE,76,2.0,4.0,75,0.00,,,0.00,91,Wunderground v.1.15,2013-10-29 14:15:00,
2013-10-29 09:16:00,37.2,30.0,30.43,ESE,109,2.0,7.0,75,0.00,,,0.00,95,Wunderground v.1.15,2013-10-29 14:16:00,
2013-10-29 09:17:00,37.2,30.0,30.43,East,89,3.0,7.0,75,0.00,,,0.00,98,Wunderground v.1.15,2013-10-29 14:17:00,
2013-10-29 09:19:00,37.2,29.7,30.43,ESE,111,3.0,7.0,74,0.00,,,0.00,104,Wunderground v.1.15,2013-10-29 14:19:00,
2013-10-29 09:20:00,37.2,29.7,30.43,ESE,108,3.0,7.0,74,0.00,,,0.00,105,Wunderground v.1.15,2013-10-29 14:20:00,
2013-10-29 09:22:00,37.3,30.1,30.43,East,89,4.0,7.0,75,0.00,,,0.00,114,Wunderground v.1.15,2013-10-29 14:22:00,
2013-10-29 09:24:00,37.3,30.1,30.43,ESE,117,4.0,7.0,75,0.00,,,0.00,116,Wunderground v.1.15,2013-10-29 14:24:00,
2013-10-29 09:25:00,37.3,30.1,30.43,ESE,107,4.0,7.0,75,0.00,,,0.00,121,Wunderground v.1.15,2013-10-29 14:25:00,
2013-10-29 09:27:00,37.4,30.2,30.43,East,96,4.0,7.0,75,0.00,,,0.00,127,Wunderground v.1.15,2013-10-29 14:27:00,
2013-10-29 09:29:00,37.4,30.2,30.43,ENE,71,4.0,7.0,75,0.00,,,0.00,127,Wunderground v.1.15,2013-10-29 14:29:00,
2013-10-29 09:34:00,37.6,30.4,30.42,ESE,104,3.0,4.0,75,0.00,,,0.00,125,Wunderground v.1.15,2013-10-29 14:34:00,
2013-10-29 09:35:00,37.6,30.4,30.42,ENE,67,3.0,4.0,75,0.00,,,0.00,125,Wunderground v.1.15,2013-10-29 14:35:00,
2013-10-29 09:36:00,37.7,30.5,30.42,ESE,112,3.0,4.0,75,0.00,,,0.00,127,Wunderground v.1.15,2013-10-29 14:36:00,
2013-10-29 09:39:00,37.8,30.6,30.43,SE,126,3.0,7.0,75,0.00,,,0.00,132,Wunderground v.1.15,2013-10-29 14:39:00,
2013-10-29 09:40:00,37.8,30.6,30.43,ESE,121,3.0,3.0,75,0.00,,,0.00,139,Wunderground v.1.15,2013-10-29 14:40:00,
2013-10-29 09:41:00,37.8,30.6,30.42,ESE,121,3.0,3.0,75,0.00,,,0.00,142,Wunderground v.1.15,2013-10-29 14:41:00,
2013-10-29 09:44:00,37.9,30.7,30.42,ENE,78,3.0,6.0,75,0.00,,,0.00,141,Wunderground v.1.15,2013-10-29 14:44:00,
2013-10-29 09:46:00,38.0,30.8,30.42,ESE,123,4.0,6.0,75,0.00,,,0.00,128,Wunderground v.1.15,2013-10-29 14:46:00,
2013-10-29 09:47:00,38.0,30.8,30.42,ESE,123,4.0,6.0,75,0.00,,,0.00,132,Wunderground v.1.15,2013-10-29 14:47:00,
2013-10-29 09:49:00,38.1,30.9,30.42,ESE,117,3.0,6.0,75,0.00,,,0.00,134,Wunderground v.1.15,2013-10-29 14:49:00,
2013-10-29 09:51:00,38.1,30.9,30.42,ESE,117,3.0,3.0,75,0.00,,,0.00,137,Wunderground v.1.15,2013-10-29 14:51:00,
2013-10-29 09:55:00,38.3,31.1,30.42,ENE,67,2.0,3.0,75,0.00,,,0.00,153,Wunderground v.1.15,2013-10-29 14:55:00,
2013-10-29 09:56:00,38.3,31.1,30.42,ENE,62,2.0,3.0,75,0.00,,,0.00,155,Wunderground v.1.15,2013-10-29 14:56:00,
2013-10-29 09:57:00,38.3,31.1,30.42,ENE,62,2.0,3.0,75,0.00,,,0.00,156,Wunderground v.1.15,2013-10-29 14:57:00,
2013-10-29 10:00:00,38.4,31.2,30.42,ENE,66,2.0,2.0,75,0.00,,,0.00,158,Wunderground v.1.15,2013-10-29 15:00:00,
2013-10-29 10:01:00,38.4,31.2,30.42,ENE,66,2.0,2.0,75,0.00,,,0.00,163,Wunderground v.1.15,2013-10-29 15:01:00,
2013-10-29 10:02:00,38.5,31.3,30.42,SE,129,2.0,2.0,75,0.00,,,0.00,163,Wunderground v.1.15,2013-10-29 15:02:00,
2013-10-29 10:03:00,38.6,31.4,30.42,SE,129,2.0,2.0,75,0.00,,,0.00,172,Wunderground v.1.15,2013-10-29 15:03:00,
2013-10-29 10:04:00,38.6,31.4,30.42,SE,129,2.0,2.0,75,0.00,,,0.00,172,Wunderground v.1.15,2013-10-29 15:04:00,
2013-10-29 10:06:00,38.7,31.5,30.42,SE,129,2.0,2.0,75,0.00,,,0.00,181,Wunderground v.1.15,2013-10-29 15:06:00,
2013-10-29 10:09:00,38.8,31.6,30.42,SE,129,2.0,2.0,75,0.00,,,0.00,188,Wunderground v.1.15,2013-10-29 15:09:00,
2013-10-29 10:10:00,38.9,31.6,30.42,SE,129,2.0,2.0,75,0.00,,,0.00,195,Wunderground v.1.15,2013-10-29 15:10:00,
2013-10-29 10:11:00,38.9,31.6,30.42,SE,128,2.0,2.0,75,0.00,,,0.00,199,Wunderground v.1.15,2013-10-29 15:11:00,
2013-10-29 10:12:00,39.0,31.7,30.42,SE,128,2.0,2.0,75,0.00,,,0.00,204,Wunderground v.1.15,2013-10-29 15:12:00,
2013-10-29 10:14:00,39.1,31.8,30.42,East,95,2.0,4.0,75,0.00,,,0.00,213,Wunderground v.1.15,2013-10-29 15:14:00,
2013-10-29 10:15:00,39.2,31.9,30.41,NE,51,2.0,5.0,75,0.00,,,0.00,225,Wunderground v.1.15,2013-10-29 15:15:00,
2013-10-29 10:19:00,39.4,32.1,30.41,NNE,31,3.0,5.0,75,0.00,,,0.00,230,Wunderground v.1.15,2013-10-29 15:19:00,
2013-10-29 10:22:00,39.7,32.4,30.41,East,90,3.0,5.0,75,0.00,,,0.00,202,Wunderground v.1.15,2013-10-29 15:22:00,
2013-10-29 10:25:00,39.9,32.6,30.41,NE,50,3.0,5.0,75,0.00,,,0.00,165,Wunderground v.1.15,2013-10-29 15:25:00,
2013-10-29 10:26:00,39.9,32.6,30.41,NNE,32,3.0,5.0,75,0.00,,,0.00,155,Wunderground v.1.15,2013-10-29 15:26:00,
2013-10-29 10:27:00,39.9,32.3,30.41,NNE,19,3.0,5.0,74,0.00,,,0.00,155,Wunderground v.1.15,2013-10-29 15:27:00,
2013-10-29 10:30:00,40.0,32.4,30.41,ENE,66,4.0,4.0,74,0.00,,,0.00,153,Wunderground v.1.15,2013-10-29 15:30:00,
2013-10-29 10:31:00,40.0,32.4,30.40,ENE,58,4.0,5.0,74,0.00,,,0.00,155,Wunderground v.1.15,2013-10-29 15:31:00,
2013-10-29 10:34:00,40.0,32.7,30.40,NE,38,4.0,6.0,75,0.00,,,0.00,155,Wunderground v.1.15,2013-10-29 15:34:00,
2013-10-29 10:35:00,40.0,32.7,30.40,NE,37,4.0,6.0,75,0.00,,,0.00,155,Wunderground v.1.15,2013-10-29 15:35:00,
2013-10-29 10:36:00,40.0,32.7,30.40,NE,35,4.0,6.0,75,0.00,,,0.00,153,Wunderground v.1.15,2013-10-29 15:36:00,
2013-10-29 10:37:00,40.1,32.8,30.40,NE,44,4.0,6.0,75,0.00,,,0.00,153,Wunderground v.1.15,2013-10-29 15:37:00,
2013-10-29 10:39:00,40.1,32.8,30.40,NE,44,3.0,6.0,75,0.00,,,0.00,153,Wunderground v.1.15,2013-10-29 15:39:00,
2013-10-29 10:40:00,40.2,32.9,30.40,East,98,3.0,6.0,75,0.00,,,0.00,153,Wunderground v.1.15,2013-10-29 15:40:00,
2013-10-29 10:42:00,40.3,33.0,30.40,ESE,102,3.0,6.0,75,0.00,,,0.00,153,Wunderground v.1.15,2013-10-29 15:42:00,
2013-10-29 10:44:00,40.4,33.1,30.39,East,89,3.0,6.0,75,0.00,,,0.00,146,Wunderground v.1.15,2013-10-29 15:44:00,
2013-10-29 10:46:00,40.5,33.2,30.39,ESE,120,3.0,6.0,75,0.00,,,0.00,141,Wunderground v.1.15,2013-10-29 15:46:00,
2013-10-29 10:49:00,40.6,33.3,30.39,East,87,3.0,6.0,75,0.00,,,0.00,132,Wunderground v.1.15,2013-10-29 15:49:00,
2013-10-29 10:50:00,40.6,33.3,30.39,ENE,73,4.0,6.0,75,0.00,,,0.00,121,Wunderground v.1.15,2013-10-29 15:50:00,
2013-10-29 10:52:00,40.7,33.4,30.39,ENE,65,4.0,6.0,75,0.00,,,0.00,104,Wunderground v.1.15,2013-10-29 15:52:00,
2013-10-29 10:54:00,40.7,33.4,30.39,ENE,74,4.0,7.0,75,0.00,,,0.00,98,Wunderground v.1.15,2013-10-29 15:54:00,
2013-10-29 10:55:00,40.7,33.4,30.39,SE,134,4.0,7.0,75,0.00,,,0.00,90,Wunderground v.1.15,2013-10-29 15:55:00,
2013-10-29 10:56:00,40.7,33.4,30.40,East,94,4.0,7.0,75,0.00,,,0.00,88,Wunderground v.1.15,2013-10-29 15:56:00,
2013-10-29 10:59:00,40.8,33.5,30.39,ESE,116,5.0,7.0,75,0.00,,,0.00,88,Wunderground v.1.15,2013-10-29 15:59:00,
2013-10-29 11:00:00,40.8,33.5,30.39,East,91,5.0,5.0,75,0.00,,,0.00,88,Wunderground v.1.15,2013-10-29 16:00:00,
2013-10-29 11:01:00,40.8,33.5,30.39,ENE,73,5.0,5.0,75,0.00,,,0.00,86,Wunderground v.1.15,2013-10-29 16:01:00,
2013-10-29 11:05:00,40.9,33.6,30.39,NE,48,4.0,5.0,75,0.00,,,0.00,81,Wunderground v.1.15,2013-10-29 16:05:00,
2013-10-29 11:06:00,40.9,33.6,30.39,NE,53,4.0,7.0,75,0.00,,,0.00,79,Wunderground v.1.15,2013-10-29 16:06:00,
2013-10-29 11:11:00,41.0,33.7,30.39,ENE,67,4.0,8.0,75,0.00,,,0.00,81,Wunderground v.1.15,2013-10-29 16:11:00,
2013-10-29 11:12:00,41.0,35.3,30.39,NE,51,5.0,8.0,80,0.00,,,0.00,83,Wunderground v.1.15,2013-10-29 16:12:00,
2013-10-29 11:14:00,41.0,33.7,30.39,ENE,67,5.0,8.0,75,0.00,,,0.00,84,Wunderground v.1.15,2013-10-29 16:14:00,
2013-10-29 11:16:00,41.0,34.0,30.39,ENE,59,5.0,10.0,76,0.00,,,0.00,90,Wunderground v.1.15,2013-10-29 16:16:00,
2013-10-29 11:17:00,41.0,34.0,30.39,NE,54,5.0,10.0,76,0.00,,,0.00,93,Wunderground v.1.15,2013-10-29 16:17:00,
2013-10-29 11:19:00,41.1,34.1,30.39,ENE,64,5.0,10.0,76,0.00,,,0.00,98,Wunderground v.1.15,2013-10-29 16:19:00,
2013-10-29 11:23:00,41.2,34.2,30.38,ENE,63,4.0,5.0,76,0.00,,,0.00,109,Wunderground v.1.15,2013-10-29 16:23:00,
2013-10-29 11:24:00,41.2,34.2,30.38,ESE,112,4.0,5.0,76,0.00,,,0.00,111,Wunderground v.1.15,2013-10-29 16:24:00,
2013-10-29 11:25:00,41.3,34.3,30.38,East,95,4.0,5.0,76,0.00,,,0.00,113,Wunderground v.1.15,2013-10-29 16:25:00,
2013-10-29 11:26:00,41.3,34.3,30.38,East,81,3.0,5.0,76,0.00,,,0.00,118,Wunderground v.1.15,2013-10-29 16:26:00,
2013-10-29 11:29:00,41.3,34.3,30.38,ENE,67,3.0,5.0,76,0.00,,,0.00,123,Wunderground v.1.15,2013-10-29 16:29:00,
2013-10-29 11:30:00,41.4,34.1,30.38,SE,130,3.0,7.0,75,0.00,,,0.00,125,Wunderground v.1.15,2013-10-29 16:30:00,
2013-10-29 11:32:00,41.4,34.1,30.38,East,86,4.0,7.0,75,0.00,,,0.00,123,Wunderground v.1.15,2013-10-29 16:32:00,
2013-10-29 11:34:00,41.4,34.1,30.38,East,84,4.0,7.0,75,0.00,,,0.00,121,Wunderground v.1.15,2013-10-29 16:34:00,
2013-10-29 11:37:00,41.5,34.2,30.39,East,79,4.0,7.0,75,0.00,,,0.00,107,Wunderground v.1.15,2013-10-29 16:37:00,
2013-10-29 11:39:00,41.5,34.2,30.39,ESE,115,3.0,7.0,75,0.00,,,0.00,105,Wunderground v.1.15,2013-10-29 16:39:00,
2013-10-29 11:42:00,41.6,34.3,30.39,East,88,3.0,6.0,75,0.00,,,0.00,98,Wunderground v.1.15,2013-10-29 16:42:00,
2013-10-29 11:44:00,41.6,34.3,30.39,ENE,78,3.0,6.0,75,0.00,,,0.00,98,Wunderground v.1.15,2013-10-29 16:44:00,
2013-10-29 11:45:00,41.6,34.3,30.38,ENE,57,3.0,6.0,75,0.00,,,0.00,100,Wunderground v.1.15,2013-10-29 16:45:00,
2013-10-29 11:47:00,41.6,34.3,30.38,ENE,73,3.0,6.0,75,0.00,,,0.00,102,Wunderground v.1.15,2013-10-29 16:47:00,
2013-10-29 11:49:00,41.6,34.3,30.38,East,88,3.0,6.0,75,0.00,,,0.00,104,Wunderground v.1.15,2013-10-29 16:49:00,
2013-10-29 11:50:00,41.7,34.4,30.38,East,90,3.0,3.0,75,0.00,,,0.00,105,Wunderground v.1.15,2013-10-29 16:50:00,
2013-10-29 11:54:00,41.7,34.4,30.38,ENE,71,3.0,3.0,75,0.00,,,0.00,105,Wunderground v.1.15,2013-10-29 16:54:00,
2013-10-29 11:57:00,41.8,34.5,30.38,NE,56,3.0,4.0,75,0.00,,,0.00,113,Wunderground v.1.15,2013-10-29 16:57:00,
2013-10-29 11:59:00,41.9,34.6,30.38,East,101,3.0,5.0,75,0.00,,,0.00,118,Wunderground v.1.15,2013-10-29 16:59:00,
2013-10-29 12:00:00,41.9,34.6,30.38,East,101,3.0,4.0,75,0.00,,,0.00,125,Wunderground v.1.15,2013-10-29 17:00:00,
2013-10-29 12:01:00,41.9,34.6,30.38,East,86,3.0,4.0,75,0.00,,,0.00,127,Wunderground v.1.15,2013-10-29 17:01:00,
2013-10-29 12:04:00,42.0,34.6,30.38,NE,55,3.0,6.0,75,0.00,,,0.00,130,Wunderground v.1.15,2013-10-29 17:04:00,
2013-10-29 12:06:00,42.0,34.6,30.38,ENE,76,4.0,6.0,75,0.00,,,0.00,134,Wunderground v.1.15,2013-10-29 17:06:00,
2013-10-29 12:07:00,42.0,34.6,30.37,NE,39,4.0,6.0,75,0.00,,,0.00,139,Wunderground v.1.15,2013-10-29 17:07:00,
2013-10-29 12:09:00,42.0,34.6,30.37,ENE,67,5.0,7.0,75,0.00,,,0.00,141,Wunderground v.1.15,2013-10-29 17:09:00,
2013-10-29 12:13:00,42.1,34.7,30.37,ESE,107,6.0,6.0,75,0.00,,,0.00,153,Wunderground v.1.15,2013-10-29 17:13:00,
2013-10-29 12:15:00,42.1,34.7,30.37,ENE,57,5.0,6.0,75,0.00,,,0.00,158,Wunderground v.1.15,2013-10-29 17:15:00,
2013-10-29 12:16:00,42.1,34.7,30.37,ENE,67,5.0,6.0,75,0.00,,,0.00,162,Wunderground v.1.15,2013-10-29 17:16:00,
2013-10-29 12:19:00,42.1,34.7,30.37,ENE,71,4.0,6.0,75,0.00,,,0.00,171,Wunderground v.1.15,2013-10-29 17:19:00,
2013-10-29 12:21:00,42.2,34.8,30.36,NNE,31,4.0,4.0,75,0.00,,,0.00,172,Wunderground v.1.15,2013-10-29 17:21:00,
2013-10-29 12:22:00,42.2,34.8,30.36,NNE,32,4.0,4.0,75,0.00,,,0.00,172,Wunderground v.1.15,2013-10-29 17:22:00,
2013-10-29 12:24:00,42.2,34.8,30.36,ENE,61,3.0,4.0,75,0.00,,,0.00,171,Wunderground v.1.15,2013-10-29 17:24:00,
2013-10-29 12:26:00,42.3,34.9,30.36,ENE,61,3.0,4.0,75,0.00,,,0.00,169,Wunderground v.1.15,2013-10-29 17:26:00,
2013-10-29 12:28:00,42.4,35.0,30.36,ENE,60,3.0,5.0,75,0.00,,,0.00,169,Wunderground v.1.15,2013-10-29 17:28:00,
2013-10-29 12:30:00,42.4,35.0,30.36,ENE,74,3.0,3.0,75,0.00,,,0.00,167,Wunderground v.1.15,2013-10-29 17:30:00,
2013-10-29 12:31:00,42.5,35.1,30.36,East,93,2.0,3.0,75,0.00,,,0.00,165,Wunderground v.1.15,2013-10-29 17:31:00,
2013-10-29 12:32:00,42.5,35.1,30.36,East,89,2.0,3.0,75,0.00,,,0.00,162,Wunderground v.1.15,2013-10-29 17:32:00,
2013-10-29 12:34:00,42.7,35.0,30.36,ENE,78,2.0,3.0,74,0.00,,,0.00,156,Wunderground v.1.15,2013-10-29 17:34:00,
2013-10-29 12:35:00,42.7,35.0,30.36,SE,127,2.0,5.0,74,0.00,,,0.00,151,Wunderground v.1.15,2013-10-29 17:35:00,
2013-10-29 12:37:00,42.7,35.0,30.35,ESE,112,3.0,5.0,74,0.00,,,0.00,146,Wunderground v.1.15,2013-10-29 17:37:00,
2013-10-29 12:40:00,42.8,35.1,30.35,ENE,60,3.0,3.0,74,0.00,,,0.00,137,Wunderground v.1.15,2013-10-29 17:40:00,
2013-10-29 12:41:00,42.9,35.2,30.35,ENE,76,3.0,3.0,74,0.00,,,0.00,135,Wunderground v.1.15,2013-10-29 17:41:00,
2013-10-29 12:42:00,42.9,35.2,30.35,ESE,123,3.0,3.0,74,0.00,,,0.00,135,Wunderground v.1.15,2013-10-29 17:42:00,
2013-10-29 12:44:00,43.0,35.3,30.35,NE,55,3.0,5.0,74,0.00,,,0.00,142,Wunderground v.1.15,2013-10-29 17:44:00,
2013-10-29 12:45:00,43.1,35.4,30.35,ENE,69,3.0,5.0,74,0.00,,,0.00,146,Wunderground v.1.15,2013-10-29 17:45:00,
2013-10-29 12:50:00,43.3,35.6,30.34,East,92,2.0,2.0,74,0.00,,,0.00,163,Wunderground v.1.15,2013-10-29 17:50:00,
2013-10-29 12:51:00,43.3,35.6,30.34,ENE,65,2.0,3.0,74,0.00,,,0.00,165,Wunderground v.1.15,2013-10-29 17:51:00,
2013-10-29 12:53:00,43.4,35.7,30.34,East,96,3.0,5.0,74,0.00,,,0.00,165,Wunderground v.1.15,2013-10-29 17:53:00,
2013-10-29 12:54:00,43.4,35.7,30.34,ESE,109,3.0,5.0,74,0.00,,,0.00,165,Wunderground v.1.15,2013-10-29 17:54:00,
2013-10-29 12:55:00,43.4,35.7,30.34,ESE,113,3.0,6.0,74,0.00,,,0.00,167,Wunderground v.1.15,2013-10-29 17:55:00,
2013-10-29 12:56:00,43.4,35.3,30.34,East,98,3.0,6.0,73,0.00,,,0.00,169,Wunderground v.1.15,2013-10-29 17:56:00,
2013-10-29 12:59:00,43.5,35.8,30.34,NE,54,3.0,6.0,74,0.00,,,0.00,171,Wunderground v.1.15,2013-10-29 17:59:00,
2013-10-29 13:00:00,43.5,35.8,30.34,NE,51,4.0,4.0,74,0.00,,,0.00,172,Wunderground v.1.15,2013-10-29 18:00:00,
2013-10-29 13:01:00,43.5,35.4,30.34,NE,52,4.0,4.0,73,0.00,,,0.00,174,Wunderground v.1.15,2013-10-29 18:01:00,
2013-10-29 13:04:00,43.5,35.8,30.33,NE,42,4.0,4.0,74,0.00,,,0.00,179,Wunderground v.1.15,2013-10-29 18:04:00,
2013-10-29 13:06:00,43.6,35.9,30.33,NE,42,3.0,4.0,74,0.00,,,0.00,183,Wunderground v.1.15,2013-10-29 18:06:00,
2013-10-29 13:07:00,43.7,36.0,30.33,North,10,3.0,4.0,74,0.00,,,0.00,186,Wunderground v.1.15,2013-10-29 18:07:00,
2013-10-29 13:08:00,43.7,36.0,30.33,North,10,3.0,4.0,74,0.00,,,0.00,193,Wunderground v.1.15,2013-10-29 18:08:00,
2013-10-29 13:10:00,43.8,36.0,30.33,NE,38,2.0,4.0,74,0.00,,,0.00,204,Wunderground v.1.15,2013-10-29 18:10:00,
2013-10-29 13:11:00,43.8,36.0,30.33,ENE,60,2.0,4.0,74,0.00,,,0.00,204,Wunderground v.1.15,2013-10-29 18:11:00,
2013-10-29 13:16:00,44.0,35.9,30.33,NE,45,4.0,7.0,73,0.00,,,0.00,250,Wunderground v.1.15,2013-10-29 18:16:00,
2013-10-29 13:17:00,44.0,35.9,30.33,NE,41,4.0,7.0,73,0.00,,,0.00,271,Wunderground v.1.15,2013-10-29 18:17:00,
2013-10-29 13:19:00,44.0,35.9,30.33,NNE,32,5.0,7.0,73,0.00,,,0.00,287,Wunderground v.1.15,2013-10-29 18:19:00,
2013-10-29 13:20:00,44.0,35.9,30.33,NNE,19,5.0,5.0,73,0.00,,,0.00,292,Wunderground v.1.15,2013-10-29 18:20:00,
2013-10-29 13:22:00,44.1,36.0,30.32,NE,53,6.0,6.0,73,0.00,,,0.00,359,Wunderground v.1.15,2013-10-29 18:22:00,
2013-10-29 13:25:00,44.3,36.2,30.32,ENE,72,5.0,6.0,73,0.00,,,0.00,359,Wunderground v.1.15,2013-10-29 18:25:00,
2013-10-29 13:26:00,44.4,36.3,30.32,NNE,24,5.0,6.0,73,0.00,,,0.00,411,Wunderground v.1.15,2013-10-29 18:26:00,
2013-10-29 13:27:00,44.5,36.4,30.32,NNE,24,5.0,6.0,73,0.00,,,0.00,411,Wunderground v.1.15,2013-10-29 18:27:00,
2013-10-29 13:29:00,44.6,36.5,30.32,NE,36,5.0,6.0,73,0.00,,,0.00,459,Wunderground v.1.15,2013-10-29 18:29:00,
2013-10-29 13:34:00,45.0,36.5,30.32,NE,45,4.0,7.0,72,0.00,,,0.00,385,Wunderground v.1.15,2013-10-29 18:34:00,
2013-10-29 13:35:00,45.1,36.6,30.32,NE,53,4.0,7.0,72,0.00,,,0.00,538,Wunderground v.1.15,2013-10-29 18:35:00,
2013-10-29 13:37:00,45.2,36.7,30.32,NE,52,5.0,8.0,72,0.00,,,0.00,513,Wunderground v.1.15,2013-10-29 18:37:00,
2013-10-29 13:39:00,45.3,36.4,30.31,NE,40,5.0,8.0,71,0.00,,,0.00,508,Wunderground v.1.15,2013-10-29 18:39:00,
2013-10-29 13:42:00,45.5,36.6,30.31,ENE,69,4.0,6.0,71,0.00,,,0.00,378,Wunderground v.1.15,2013-10-29 18:42:00,
2013-10-29 13:44:00,45.6,36.7,30.31,NE,46,4.0,10.0,71,0.00,,,0.00,378,Wunderground v.1.15,2013-10-29 18:44:00,
2013-10-29 13:47:00,45.7,36.8,30.31,NNE,19,5.0,10.0,71,0.00,,,0.00,359,Wunderground v.1.15,2013-10-29 18:47:00,
2013-10-29 13:49:00,45.7,36.5,30.30,NNE,22,5.0,10.0,70,0.00,,,0.00,411,Wunderground v.1.15,2013-10-29 18:49:00,
2013-10-29 13:51:00,45.8,36.6,30.30,NE,52,6.0,10.0,70,0.00,,,0.00,541,Wunderground v.1.15,2013-10-29 18:51:00,
2013-10-29 13:52:00,45.7,36.5,30.30,NE,49,6.0,10.0,70,0.00,,,0.00,568,Wunderground v.1.15,2013-10-29 18:52:00,
2013-10-29 13:54:00,45.7,36.5,30.30,ENE,58,6.0,10.0,70,0.00,,,0.00,571,Wunderground v.1.15,2013-10-29 18:54:00,
2013-10-29 13:57:00,46.2,37.0,30.30,ESE,112,6.0,10.0,70,0.00,,,0.00,538,Wunderground v.1.15,2013-10-29 18:57:00,
2013-10-29 13:59:00,46.5,37.2,30.29,ENE,63,6.0,10.0,70,0.00,,,0.00,519,Wunderground v.1.15,2013-10-29 18:59:00,
2013-10-29 14:00:00,46.7,37.4,30.29,ESE,117,6.0,6.0,70,0.00,,,0.00,512,Wunderground v.1.15,2013-10-29 19:00:00,
2013-10-29 14:02:00,46.9,37.3,30.29,East,90,5.0,7.0,69,0.00,,,0.00,499,Wunderground v.1.15,2013-10-29 19:02:00,
2013-10-29 14:04:00,47.3,37.6,30.29,SE,136,5.0,8.0,69,0.00,,,0.00,489,Wunderground v.1.15,2013-10-29 19:04:00,
2013-10-29 14:06:00,47.4,37.4,30.29,SE,141,5.0,8.0,68,0.00,,,0.00,483,Wunderground v.1.15,2013-10-29 19:06:00,
2013-10-29 14:09:00,47.6,37.6,30.29,ESE,119,6.0,9.0,68,0.00,,,0.00,473,Wunderground v.1.15,2013-10-29 19:09:00,
2013-10-29 14:10:00,47.7,37.7,30.29,SSE,164,6.0,6.0,68,0.00,,,0.00,466,Wunderground v.1.15,2013-10-29 19:10:00,
2013-10-29 14:11:00,47.8,37.7,30.28,SE,140,6.0,9.0,68,0.00,,,0.00,464,Wunderground v.1.15,2013-10-29 19:11:00,
2013-10-29 14:12:00,47.9,37.8,30.28,SE,132,6.0,13.0,68,0.00,,,0.00,461,Wunderground v.1.15,2013-10-29 19:12:00,
2013-10-29 14:14:00,47.9,37.5,30.28,ENE,67,7.0,13.0,67,0.00,,,0.00,457,Wunderground v.1.15,2013-10-29 19:14:00,
2013-10-29 14:18:00,48.1,37.7,30.28,ESE,121,6.0,13.0,67,0.00,,,0.00,452,Wunderground v.1.15,2013-10-29 19:18:00,
2013-10-29 14:19:00,48.1,37.7,30.28,East,82,6.0,13.0,67,0.00,,,0.00,452,Wunderground v.1.15,2013-10-29 19:19:00,
2013-10-29 14:20:00,48.2,37.8,30.28,East,82,6.0,6.0,67,0.00,,,0.00,450,Wunderground v.1.15,2013-10-29 19:20:00,
2013-10-29 14:22:00,48.1,37.3,30.28,NE,53,6.0,8.0,66,0.00,,,0.00,446,Wunderground v.1.15,2013-10-29 19:22:00,
2013-10-29 14:25:00,48.2,37.8,30.28,East,86,6.0,8.0,67,0.00,,,0.00,446,Wunderground v.1.15,2013-10-29 19:25:00,
2013-10-29 14:29:00,48.6,38.1,30.28,NE,42,5.0,8.0,67,0.00,,,0.00,446,Wunderground v.1.15,2013-10-29 19:29:00,
2013-10-29 14:30:00,48.8,37.9,30.28,NE,34,5.0,7.0,66,0.00,,,0.00,443,Wunderground v.1.15,2013-10-29 19:30:00,
2013-10-29 14:31:00,48.8,37.9,30.28,East,98,5.0,7.0,66,0.00,,,0.00,446,Wunderground v.1.15,2013-10-29 19:31:00,
2013-10-29 14:34:00,48.8,37.9,30.27,ESE,111,5.0,7.0,66,0.00,,,0.00,439,Wunderground v.1.15,2013-10-29 19:34:00,
2013-10-29 14:35:00,48.9,38.0,30.27,ESE,114,5.0,7.0,66,0.00,,,0.00,427,Wunderground v.1.15,2013-10-29 19:35:00,
2013-10-29 14:37:00,49.1,38.2,30.27,SE,139,4.0,7.0,66,0.00,,,0.00,425,Wunderground v.1.15,2013-10-29 19:37:00,
2013-10-29 14:39:00,49.2,37.9,30.27,SE,128,5.0,7.0,65,0.00,,,0.00,422,Wunderground v.1.15,2013-10-29 19:39:00,
2013-10-29 14:40:00,49.3,38.0,30.27,ENE,77,5.0,6.0,65,0.00,,,0.00,418,Wunderground v.1.15,2013-10-29 19:40:00,
2013-10-29 14:41:00,49.3,38.0,30.27,ENE,61,5.0,7.0,65,0.00,,,0.00,417,Wunderground v.1.15,2013-10-29 19:41:00,
2013-10-29 14:45:00,49.6,38.3,30.26,East,97,5.0,12.0,65,0.00,,,0.00,406,Wunderground v.1.15,2013-10-29 19:45:00,
2013-10-29 14:46:00,49.6,38.3,30.26,ENE,64,6.0,12.0,65,0.00,,,0.00,418,Wunderground v.1.15,2013-10-29 19:46:00,
2013-10-29 14:47:00,49.6,37.9,30.26,ESE,115,6.0,12.0,64,0.00,,,0.00,394,Wunderground v.1.15,2013-10-29 19:47:00,
2013-10-29 14:49:00,49.6,38.3,30.26,NE,43,6.0,12.0,65,0.00,,,0.00,408,Wunderground v.1.15,2013-10-29 19:49:00,
2013-10-29 14:50:00,49.7,38.4,30.26,ENE,61,6.0,6.0,65,0.00,,,0.00,264,Wunderground v.1.15,2013-10-29 19:50:00,
2013-10-29 14:54:00,50.1,38.4,30.26,ESE,113,5.0,6.0,64,0.00,,,0.00,320,Wunderground v.1.15,2013-10-29 19:54:00,
2013-10-29 14:55:00,50.2,38.5,30.26,East,99,5.0,6.0,64,0.00,,,0.00,320,Wunderground v.1.15,2013-10-29 19:55:00,
2013-10-29 14:56:00,50.3,38.6,30.26,ENE,62,4.0,12.0,64,0.00,,,0.00,448,Wunderground v.1.15,2013-10-29 19:56:00,
2013-10-29 14:57:00,50.4,38.7,30.26,ENE,63,4.0,12.0,64,0.00,,,0.00,457,Wunderground v.1.15,2013-10-29 19:57:00,
2013-10-29 14:58:00,50.5,38.8,30.26,ENE,70,4.0,12.0,64,0.00,,,0.00,427,Wunderground v.1.15,2013-10-29 19:58:00,
2013-10-29 14:59:00,50.5,38.8,30.26,ENE,59,5.0,12.0,64,0.00,,,0.00,431,Wunderground v.1.15,2013-10-29 19:59:00,
2013-10-29 15:02:00,50.8,38.7,30.26,SE,146,4.0,7.0,63,0.00,,,0.00,429,Wunderground v.1.15,2013-10-29 20:02:00,
2013-10-29 15:04:00,50.8,38.7,30.25,SE,136,5.0,10.0,63,0.00,,,0.00,399,Wunderground v.1.15,2013-10-29 20:04:00,
2013-10-29 15:05:00,50.9,38.7,30.25,SE,136,6.0,10.0,63,0.00,,,0.00,374,Wunderground v.1.15,2013-10-29 20:05:00,
2013-10-29 15:07:00,51.0,38.8,30.25,ESE,111,6.0,10.0,63,0.00,,,0.00,381,Wunderground v.1.15,2013-10-29 20:07:00,
2013-10-29 15:09:00,51.2,39.0,30.25,East,85,5.0,10.0,63,0.00,,,0.00,371,Wunderground v.1.15,2013-10-29 20:09:00,
2013-10-29 15:10:00,51.3,39.1,30.25,ENE,78,5.0,5.0,63,0.00,,,0.00,371,Wunderground v.1.15,2013-10-29 20:10:00,
2013-10-29 15:12:00,51.5,38.9,30.25,ENE,70,5.0,10.0,62,0.00,,,0.00,362,Wunderground v.1.15,2013-10-29 20:12:00,
2013-10-29 15:13:00,51.4,38.8,30.25,East,88,5.0,10.0,62,0.00,,,0.00,348,Wunderground v.1.15,2013-10-29 20:13:00,
2013-10-29 15:17:00,51.4,39.2,30.24,SE,140,5.0,10.0,63,0.00,,,0.00,338,Wunderground v.1.15,2013-10-29 20:17:00,
2013-10-29 15:19:00,51.5,38.9,30.24,ENE,67,5.0,10.0,62,0.00,,,0.00,338,Wunderground v.1.15,2013-10-29 20:19:00,
2013-10-29 15:21:00,51.7,39.1,30.25,East,95,5.0,5.0,62,0.00,,,0.00,339,Wunderground v.1.15,2013-10-29 20:21:00,
2013-10-29 15:24:00,51.8,39.2,30.24,ESE,116,4.0,6.0,62,0.00,,,0.00,345,Wunderground v.1.15,2013-10-29 20:24:00,
2013-10-29 15:25:00,51.7,38.7,30.24,SE,127,4.0,8.0,61,0.00,,,0.00,332,Wunderground v.1.15,2013-10-29 20:25:00,
2013-10-29 15:26:00,51.7,38.7,30.24,East,82,4.0,8.0,61,0.00,,,0.00,346,Wunderground v.1.15,2013-10-29 20:26:00,
2013-10-29 15:29:00,51.7,38.7,30.24,East,82,5.0,8.0,61,0.00,,,0.00,332,Wunderground v.1.15,2013-10-29 20:29:00,
2013-10-29 15:30:00,51.7,39.1,30.24,ESE,110,5.0,5.0,62,0.00,,,0.00,327,Wunderground v.1.15,2013-10-29 20:30:00,
2013-10-29 15:31:00,51.7,39.1,30.24,East,100,5.0,5.0,62,0.00,,,0.00,322,Wunderground v.1.15,2013-10-29 20:31:00,
2013-10-29 15:34:00,51.9,38.9,30.24,SSE,157,5.0,9.0,61,0.00,,,0.00,311,Wunderground v.1.15,2013-10-29 20:34:00,
2013-10-29 15:36:00,51.9,38.9,30.24,ESE,117,5.0,9.0,61,0.00,,,0.00,311,Wunderground v.1.15,2013-10-29 20:36:00,
2013-10-29 15:37:00,51.9,39.3,30.24,ENE,76,5.0,9.0,62,0.00,,,0.00,309,Wunderground v.1.15,2013-10-29 20:37:00,
2013-10-29 15:40:00,52.0,39.4,30.24,ENE,70,5.0,7.0,62,0.00,,,0.00,325,Wunderground v.1.15,2013-10-29 20:40:00,
2013-10-29 15:41:00,51.9,39.3,30.24,ENE,70,5.0,7.0,62,0.00,,,0.00,334,Wunderground v.1.15,2013-10-29 20:41:00,
2013-10-29 15:42:00,51.9,39.3,30.24,East,87,5.0,7.0,62,0.00,,,0.00,339,Wunderground v.1.15,2013-10-29 20:42:00,
2013-10-29 15:44:00,52.0,39.4,30.24,East,101,5.0,7.0,62,0.00,,,0.00,341,Wunderground v.1.15,2013-10-29 20:44:00,
2013-10-29 15:49:00,52.2,39.6,30.24,ESE,120,5.0,9.0,62,0.00,,,0.00,329,Wunderground v.1.15,2013-10-29 20:49:00,
2013-10-29 15:50:00,52.3,39.7,30.24,SE,124,5.0,8.0,62,0.00,,,0.00,329,Wunderground v.1.15,2013-10-29 20:50:00,
2013-10-29 15:51:00,52.3,39.7,30.24,ESE,102,5.0,8.0,62,0.00,,,0.00,323,Wunderground v.1.15,2013-10-29 20:51:00,
2013-10-29 15:52:00,52.4,39.3,30.23,ENE,74,5.0,8.0,61,0.00,,,0.00,316,Wunderground v.1.15,2013-10-29 20:52:00,
2013-10-29 15:54:00,52.4,39.8,30.23,ENE,76,5.0,8.0,62,0.00,,,0.00,309,Wunderground v.1.15,2013-10-29 20:54:00,
2013-10-29 15:56:00,52.4,39.3,30.24,ESE,105,6.0,8.0,61,0.00,,,0.00,267,Wunderground v.1.15,2013-10-29 20:56:00,
2013-10-29 15:59:00,52.3,39.2,30.24,East,95,7.0,11.0,61,0.00,,,0.00,135,Wunderground v.1.15,2013-10-29 20:59:00,
2013-10-29 16:01:00,52.1,39.5,30.23,ENE,75,6.0,7.0,62,0.00,,,0.00,127,Wunderground v.1.15,2013-10-29 21:01:00,
2013-10-29 16:02:00,52.1,39.5,30.23,East,88,6.0,7.0,62,0.00,,,0.00,128,Wunderground v.1.15,2013-10-29 21:02:00,
2013-10-29 16:05:00,52.1,39.5,30.23,East,90,6.0,7.0,62,0.00,,,0.00,86,Wunderground v.1.15,2013-10-29 21:05:00,
2013-10-29 16:09:00,51.9,39.3,30.23,East,94,5.0,11.0,62,0.00,,,0.00,69,Wunderground v.1.15,2013-10-29 21:09:00,
2013-10-29 16:10:00,51.9,39.3,30.23,East,85,5.0,5.0,62,0.00,,,0.00,69,Wunderground v.1.15,2013-10-29 21:10:00,
2013-10-29 16:11:00,51.8,39.2,30.23,East,96,5.0,6.0,62,0.00,,,0.00,69,Wunderground v.1.15,2013-10-29 21:11:00,
2013-10-29 16:12:00,51.7,39.1,30.23,ESE,102,5.0,6.0,62,0.00,,,0.00,67,Wunderground v.1.15,2013-10-29 21:12:00,
2013-10-29 16:14:00,51.6,39.4,30.23,SSE,157,5.0,6.0,63,0.00,,,0.00,70,Wunderground v.1.15,2013-10-29 21:14:00,
2013-10-29 16:16:00,51.6,39.4,30.23,ESE,117,5.0,6.0,63,0.00,,,0.00,76,Wunderground v.1.15,2013-10-29 21:16:00,
2013-10-29 16:17:00,51.6,39.4,30.24,ESE,118,5.0,6.0,63,0.00,,,0.00,79,Wunderground v.1.15,2013-10-29 21:17:00,
2013-10-29 16:19:00,51.5,39.3,30.23,ESE,118,5.0,6.0,63,0.00,,,0.00,81,Wunderground v.1.15,2013-10-29 21:19:00,
2013-10-29 16:22:00,51.5,39.3,30.23,ENE,61,3.0,5.0,63,0.00,,,0.00,84,Wunderground v.1.15,2013-10-29 21:22:00,
2013-10-29 16:24:00,51.5,39.3,30.23,NE,51,3.0,7.0,63,0.00,,,0.00,83,Wunderground v.1.15,2013-10-29 21:24:00,
2013-10-29 16:25:00,51.5,39.3,30.23,ENE,60,4.0,7.0,63,0.00,,,0.00,81,Wunderground v.1.15,2013-10-29 21:25:00,
2013-10-29 16:29:00,51.5,39.7,30.23,NE,50,4.0,7.0,64,0.00,,,0.00,77,Wunderground v.1.15,2013-10-29 21:29:00,
2013-10-29 16:31:00,51.5,39.7,30.23,NE,49,4.0,5.0,64,0.00,,,0.00,77,Wunderground v.1.15,2013-10-29 21:31:00,
2013-10-29 16:34:00,51.5,39.7,30.23,ENE,58,5.0,6.0,64,0.00,,,0.00,76,Wunderground v.1.15,2013-10-29 21:34:00,
2013-10-29 16:36:00,51.5,39.7,30.23,NE,49,4.0,6.0,64,0.00,,,0.00,74,Wunderground v.1.15,2013-10-29 21:36:00,
2013-10-29 16:37:00,51.5,39.7,30.23,ENE,63,4.0,6.0,64,0.00,,,0.00,74,Wunderground v.1.15,2013-10-29 21:37:00,
2013-10-29 16:39:00,51.5,39.7,30.23,ENE,67,4.0,6.0,64,0.00,,,0.00,74,Wunderground v.1.15,2013-10-29 21:39:00,
2013-10-29 16:40:00,51.5,39.7,30.23,ENE,58,4.0,6.0,64,0.00,,,0.00,72,Wunderground v.1.15,2013-10-29 21:40:00,
2013-10-29 16:42:00,51.5,39.7,30.23,NE,44,4.0,6.0,64,0.00,,,0.00,70,Wunderground v.1.15,2013-10-29 21:42:00,
2013-10-29 16:45:00,51.5,39.7,30.23,NE,38,4.0,6.0,64,0.00,,,0.00,70,Wunderground v.1.15,2013-10-29 21:45:00,
2013-10-29 16:46:00,51.5,39.7,30.23,ENE,60,4.0,6.0,64,0.00,,,0.00,69,Wunderground v.1.15,2013-10-29 21:46:00,
2013-10-29 16:49:00,51.5,40.1,30.23,NE,44,4.0,8.0,65,0.00,,,0.00,63,Wunderground v.1.15,2013-10-29 21:49:00,
2013-10-29 16:50:00,51.5,39.7,30.23,NE,55,4.0,6.0,64,0.00,,,0.00,62,Wunderground v.1.15,2013-10-29 21:50:00,
2013-10-29 16:51:00,51.5,39.7,30.23,NE,55,5.0,6.0,64,0.00,,,0.00,58,Wunderground v.1.15,2013-10-29 21:51:00,
2013-10-29 16:54:00,51.5,40.1,30.23,NE,53,4.0,6.0,65,0.00,,,0.00,53,Wunderground v.1.15,2013-10-29 21:54:00,
2013-10-29 16:55:00,51.5,40.1,30.23,NE,38,4.0,6.0,65,0.00,,,0.00,49,Wunderground v.1.15,2013-10-29 21:55:00,
2013-10-29 16:56:00,51.5,40.1,30.23,NE,49,4.0,6.0,65,0.00,,,0.00,49,Wunderground v.1.15,2013-10-29 21:56:00,
2013-10-29 16:58:00,51.5,40.1,30.23,East,92,4.0,6.0,65,0.00,,,0.00,49,Wunderground v.1.15,2013-10-29 21:58:00,
2013-10-29 17:01:00,51.5,40.1,30.23,ENE,69,3.0,3.0,65,0.00,,,0.00,47,Wunderground v.1.15,2013-10-29 22:01:00,
2013-10-29 17:02:00,51.5,40.1,30.23,ENE,64,3.0,6.0,65,0.00,,,0.00,46,Wunderground v.1.15,2013-10-29 22:02:00,
2013-10-29 17:04:00,51.5,40.1,30.23,NE,55,3.0,6.0,65,0.00,,,0.00,42,Wunderground v.1.15,2013-10-29 22:04:00,
2013-10-29 17:05:00,51.5,40.1,30.23,East,94,3.0,6.0,65,0.00,,,0.00,39,Wunderground v.1.15,2013-10-29 22:05:00,
2013-10-29 17:06:00,51.5,40.1,30.23,ENE,59,3.0,6.0,65,0.00,,,0.00,37,Wunderground v.1.15,2013-10-29 22:06:00,
2013-10-29 17:07:00,51.4,40.0,30.23,ENE,66,3.0,6.0,65,0.00,,,0.00,35,Wunderground v.1.15,2013-10-29 22:07:00,
2013-10-29 17:09:00,51.4,40.0,30.23,East,80,4.0,6.0,65,0.00,,,0.00,32,Wunderground v.1.15,2013-10-29 22:09:00,
2013-10-29 17:11:00,51.4,40.0,30.23,NE,47,4.0,5.0,65,0.00,,,0.00,30,Wunderground v.1.15,2013-10-29 22:11:00,
2013-10-29 17:14:00,51.4,40.0,30.23,ENE,61,3.0,5.0,65,0.00,,,0.00,26,Wunderground v.1.15,2013-10-29 22:14:00,
2013-10-29 17:15:00,51.3,39.9,30.23,East,90,3.0,5.0,65,0.00,,,0.00,25,Wunderground v.1.15,2013-10-29 22:15:00,
2013-10-29 17:19:00,51.3,40.3,30.23,ENE,61,4.0,7.0,66,0.00,,,0.00,23,Wunderground v.1.15,2013-10-29 22:19:00,
2013-10-29 17:20:00,51.3,40.3,30.23,NE,53,4.0,4.0,66,0.00,,,0.00,23,Wunderground v.1.15,2013-10-29 22:20:00,
2013-10-29 17:21:00,51.3,40.3,30.23,NE,55,3.0,4.0,66,0.00,,,0.00,23,Wunderground v.1.15,2013-10-29 22:21:00,
2013-10-29 17:23:00,51.2,40.2,30.23,ENE,63,3.0,4.0,66,0.00,,,0.00,21,Wunderground v.1.15,2013-10-29 22:23:00,
2013-10-29 17:24:00,51.2,40.2,30.23,NE,56,3.0,4.0,66,0.00,,,0.00,19,Wunderground v.1.15,2013-10-29 22:24:00,
2013-10-29 17:26:00,51.2,40.2,30.23,NE,53,3.0,6.0,66,0.00,,,0.00,18,Wunderground v.1.15,2013-10-29 22:26:00,
2013-10-29 17:27:00,51.2,40.2,30.23,ENE,65,3.0,6.0,66,0.00,,,0.00,18,Wunderground v.1.15,2013-10-29 22:27:00,
2013-10-29 17:28:00,51.2,40.2,30.23,ENE,66,3.0,6.0,66,0.00,,,0.00,16,Wunderground v.1.15,2013-10-29 22:28:00,
2013-10-29 17:30:00,51.1,40.1,30.23,ENE,71,3.0,5.0,66,0.00,,,0.00,12,Wunderground v.1.15,2013-10-29 22:30:00,
2013-10-29 17:32:00,51.1,40.1,30.23,NE,54,4.0,5.0,66,0.00,,,0.00,11,Wunderground v.1.15,2013-10-29 22:32:00,
2013-10-29 17:34:00,51.1,40.1,30.23,NE,44,4.0,5.0,66,0.00,,,0.00,9,Wunderground v.1.15,2013-10-29 22:34:00,
2013-10-29 17:36:00,51.1,40.1,30.23,NE,50,4.0,5.0,66,0.00,,,0.00,5,Wunderground v.1.15,2013-10-29 22:36:00,
2013-10-29 17:39:00,51.1,40.1,30.22,NE,51,3.0,5.0,66,0.00,,,0.00,0,Wunderground v.1.15,2013-10-29 22:39:00,
2013-10-29 17:40:00,51.0,40.0,30.22,ENE,65,3.0,5.0,66,0.00,,,0.00,0,Wunderground v.1.15,2013-10-29 22:40:00,
2013-10-29 17:44:00,51.0,40.0,30.22,NE,51,4.0,5.0,66,0.00,,,0.00,5,Wunderground v.1.15,2013-10-29 22:44:00,
2013-10-29 17:45:00,51.0,40.0,30.22,NE,52,4.0,5.0,66,0.00,,,0.00,5,Wunderground v.1.15,2013-10-29 22:45:00,
2013-10-29 17:46:00,51.0,40.4,30.22,NE,53,4.0,5.0,67,0.00,,,0.00,5,Wunderground v.1.15,2013-10-29 22:46:00,
2013-10-29 17:49:00,50.9,40.3,30.22,ENE,65,4.0,5.0,67,0.00,,,0.00,0,Wunderground v.1.15,2013-10-29 22:49:00,
2013-10-29 17:50:00,50.8,40.2,30.22,ENE,62,4.0,5.0,67,0.00,,,0.00,0,Wunderground v.1.15,2013-10-29 22:50:00,
2013-10-29 17:51:00,50.8,39.8,30.22,East,91,4.0,5.0,66,0.00,,,0.00,0,Wunderground v.1.15,2013-10-29 22:51:00,
2013-10-29 17:52:00,50.7,40.1,30.22,East,83,4.0,5.0,67,0.00,,,0.00,0,Wunderground v.1.15,2013-10-29 22:52:00,
2013-10-29 17:54:00,50.6,40.0,30.22,ENE,66,3.0,5.0,67,0.00,,,0.00,0,Wunderground v.1.15,2013-10-29 22:54:00,
2013-10-29 17:55:00,50.5,39.9,30.22,NE,54,3.0,6.0,67,0.00,,,0.00,0,Wunderground v.1.15,2013-10-29 22:55:00,
2013-10-29 17:57:00,50.3,39.8,30.22,ENE,57,4.0,6.0,67,0.00,,,0.00,0,Wunderground v.1.15,2013-10-29 22:57:00,
2013-10-29 17:58:00,50.2,39.7,30.22,NE,55,4.0,6.0,67,0.00,,,0.00,0,Wunderground v.1.15,2013-10-29 22:58:00,
2013-10-29 18:01:00,50.0,39.5,30.22,ENE,59,4.0,5.0,67,0.00,,,0.00,0,Wunderground v.1.15,2013-10-29 23:01:00,
2013-10-29 18:04:00,49.9,39.8,30.22,NE,48,4.0,5.0,68,0.00,,,0.00,0,Wunderground v.1.15,2013-10-29 23:04:00,
2013-10-29 18:06:00,49.9,39.8,30.22,East,86,4.0,6.0,68,0.00,,,0.00,0,Wunderground v.1.15,2013-10-29 23:06:00,
2013-10-29 18:07:00,49.9,39.8,30.22,ENE,62,4.0,6.0,68,0.00,,,0.00,0,Wunderground v.1.15,2013-10-29 23:07:00,
2013-10-29 18:09:00,49.9,40.1,30.22,ENE,61,4.0,6.0,69,0.00,,,0.00,0,Wunderground v.1.15,2013-10-29 23:09:00,
2013-10-29 18:12:00,50.1,39.9,30.22,East,96,4.0,7.0,68,0.00,,,0.00,0,Wunderground v.1.15,2013-10-29 23:12:00,
2013-10-29 18:14:00,50.2,40.0,30.21,ENE,63,5.0,7.0,68,0.00,,,0.00,0,Wunderground v.1.15,2013-10-29 23:14:00,
2013-10-29 18:15:00,50.2,40.0,30.21,East,99,5.0,7.0,68,0.00,,,0.00,0,Wunderground v.1.15,2013-10-29 23:15:00,
2013-10-29 18:16:00,50.3,40.1,30.21,East,97,4.0,7.0,68,0.00,,,0.00,0,Wunderground v.1.15,2013-10-29 23:16:00,
2013-10-29 18:19:00,50.3,40.1,30.22,East,84,4.0,7.0,68,0.00,,,0.00,0,Wunderground v.1.15,2013-10-29 23:19:00,
2013-10-29 18:20:00,50.3,40.1,30.22,ESE,105,4.0,4.0,68,0.00,,,0.00,0,Wunderground v.1.15,2013-10-29 23:20:00,
2013-10-29 18:22:00,50.3,40.1,30.22,ENE,69,4.0,6.0,68,0.00,,,0.00,0,Wunderground v.1.15,2013-10-29 23:22:00,
2013-10-29 18:24:00,50.4,40.2,30.21,East,101,4.0,6.0,68,0.00,,,0.00,0,Wunderground v.1.15,2013-10-29 23:24:00,
2013-10-29 18:25:00,50.4,40.2,30.21,ENE,69,4.0,6.0,68,0.00,,,0.00,0,Wunderground v.1.15,2013-10-29 23:25:00,
2013-10-29 18:29:00,50.4,40.2,30.22,East,80,4.0,6.0,68,0.00,,,0.00,0,Wunderground v.1.15,2013-10-29 23:29:00,
2013-10-29 18:30:00,50.4,40.2,30.22,East,79,4.0,4.0,68,0.00,,,0.00,0,Wunderground v.1.15,2013-10-29 23:30:00,
2013-10-29 18:31:00,50.4,40.2,30.22,ENE,78,4.0,4.0,68,0.00,,,0.00,0,Wunderground v.1.15,2013-10-29 23:31:00,
2013-10-29 18:34:00,50.4,40.2,30.22,ENE,74,4.0,4.0,68,0.00,,,0.00,0,Wunderground v.1.15,2013-10-29 23:34:00,
2013-10-29 18:35:00,50.4,40.2,30.22,East,85,3.0,4.0,68,0.00,,,0.00,0,Wunderground v.1.15,2013-10-29 23:35:00,
2013-10-29 18:39:00,50.4,40.2,30.22,East,94,3.0,7.0,68,0.00,,,0.00,0,Wunderground v.1.15,2013-10-29 23:39:00,
2013-10-29 18:41:00,50.4,40.2,30.22,East,91,4.0,4.0,68,0.00,,,0.00,0,Wunderground v.1.15,2013-10-29 23:41:00,
2013-10-29 18:42:00,50.4,40.2,30.22,SE,124,4.0,6.0,68,0.00,,,0.00,0,Wunderground v.1.15,2013-10-29 23:42:00,
2013-10-29 18:44:00,50.4,40.2,30.22,ENE,78,4.0,6.0,68,0.00,,,0.00,0,Wunderground v.1.15,2013-10-29 23:44:00,
2013-10-29 18:47:00,50.4,40.2,30.22,ENE,63,4.0,6.0,68,0.00,,,0.00,0,Wunderground v.1.15,2013-10-29 23:47:00,
2013-10-29 18:49:00,50.4,40.2,30.22,East,80,3.0,6.0,68,0.00,,,0.00,0,Wunderground v.1.15,2013-10-29 23:49:00,
2013-10-29 18:50:00,50.4,40.2,30.22,ENE,69,3.0,3.0,68,0.00,,,0.00,0,Wunderground v.1.15,2013-10-29 23:50:00,
2013-10-29 18:51:00,50.3,40.1,30.21,ENE,69,3.0,3.0,68,0.00,,,0.00,0,Wunderground v.1.15,2013-10-29 23:51:00,
2013-10-29 18:52:00,50.3,40.1,30.21,East,84,3.0,3.0,68,0.00,,,0.00,0,Wunderground v.1.15,2013-10-29 23:52:00,
2013-10-29 18:55:00,50.2,40.0,30.21,ESE,106,3.0,3.0,68,0.00,,,0.00,0,Wunderground v.1.15,2013-10-29 23:55:00,
2013-10-29 18:56:00,50.2,40.0,30.21,East,87,2.0,3.0,68,0.00,,,0.00,0,Wunderground v.1.15,2013-10-29 23:56:00,
2013-10-29 18:59:00,50.1,39.9,30.21,ENE,71,3.0,6.0,68,0.00,,,0.00,0,Wunderground v.1.15,2013-10-29 23:59:00,
2013-10-29 19:00:00,50.1,39.9,30.21,ENE,74,3.0,5.0,68,0.00,,,0.00,0,Wunderground v.1.15,2013-10-30 00:00:00,
2013-10-29 19:01:00,50.2,40.0,30.21,East,81,3.0,5.0,68,0.00,,,0.00,0,Wunderground v.1.15,2013-10-30 00:01:00,
2013-10-29 19:02:00,50.1,39.9,30.21,SSE,165,3.0,5.0,68,0.00,,,0.00,0,Wunderground v.1.15,2013-10-30 00:02:00,
2013-10-29 19:07:00,50.1,39.9,30.22,ENE,69,3.0,5.0,68,0.00,,,0.00,0,Wunderground v.1.15,2013-10-30 00:07:00,
2013-10-29 19:09:00,50.1,39.9,30.21,ENE,70,3.0,5.0,68,0.00,,,0.00,0,Wunderground v.1.15,2013-10-30 00:09:00,
2013-10-29 19:12:00,50.1,39.9,30.21,ESE,115,2.0,4.0,68,0.00,,,0.00,0,Wunderground v.1.15,2013-10-30 00:12:00,
2013-10-29 19:14:00,50.0,39.8,30.21,ESE,110,2.0,4.0,68,0.00,,,0.00,0,Wunderground v.1.15,2013-10-30 00:14:00,
2013-10-29 19:16:00,50.0,39.8,30.21,ESE,106,2.0,4.0,68,0.00,,,0.00,0,Wunderground v.1.15,2013-10-30 00:16:00,
2013-10-29 19:19:00,49.9,39.8,30.21,ESE,106,1.0,4.0,68,0.00,,,0.00,0,Wunderground v.1.15,2013-10-30 00:19:00,
2013-10-29 19:20:00,49.9,39.8,30.21,ESE,106,1.0,1.0,68,0.00,,,0.00,0,Wunderground v.1.15,2013-10-30 00:20:00,
2013-10-29 19:21:00,49.9,39.8,30.21,ESE,106,1.0,1.0,68,0.00,,,0.00,0,Wunderground v.1.15,2013-10-30 00:21:00,
2013-10-29 19:22:00,49.9,39.8,30.21,ESE,106,1.0,1.0,68,0.00,,,0.00,0,Wunderground v.1.15,2013-10-30 00:22:00,
2013-10-29 19:24:00,49.8,39.7,30.21,ESE,105,1.0,1.0,68,0.00,,,0.00,0,Wunderground v.1.15,2013-10-30 00:24:00,
2013-10-29 19:25:00,49.8,39.7,30.21,ESE,104,1.0,2.0,68,0.00,,,0.00,0,Wunderground v.1.15,2013-10-30 00:25:00,
2013-10-29 19:27:00,49.7,39.6,30.21,ESE,104,1.0,2.0,68,0.00,,,0.00,0,Wunderground v.1.15,2013-10-30 00:27:00,
2013-10-29 19:29:00,49.7,39.6,30.21,East,101,1.0,2.0,68,0.00,,,0.00,0,Wunderground v.1.15,2013-10-30 00:29:00,
2013-10-29 19:31:00,49.6,39.8,30.21,ESE,104,1.0,4.0,69,0.00,,,0.00,0,Wunderground v.1.15,2013-10-30 00:31:00,
2013-10-29 19:32:00,49.6,39.8,30.21,ESE,104,1.0,4.0,69,0.00,,,0.00,0,Wunderground v.1.15,2013-10-30 00:32:00,
2013-10-29 19:36:00,49.6,39.8,30.21,ESE,102,1.0,4.0,69,0.00,,,0.00,0,Wunderground v.1.15,2013-10-30 00:36:00,
2013-10-29 19:37:00,49.5,39.7,30.21,ESE,102,1.0,4.0,69,0.00,,,0.00,0,Wunderground v.1.15,2013-10-30 00:37:00,
2013-10-29 19:38:00,49.5,39.7,30.21,ESE,102,1.0,4.0,69,0.00,,,0.00,0,Wunderground v.1.15,2013-10-30 00:38:00,
2013-10-29 19:43:00,49.4,39.7,30.21,ESE,102,1.0,1.0,69,0.00,,,0.00,0,Wunderground v.1.15,2013-10-30 00:43:00,
2013-10-29 19:44:00,49.4,39.7,30.21,ESE,102,1.0,1.0,69,0.00,,,0.00,0,Wunderground v.1.15,2013-10-30 00:44:00,
2013-10-29 19:45:00,49.3,39.6,30.21,ESE,102,0.0,1.0,69,0.00,,,0.00,0,Wunderground v.1.15,2013-10-30 00:45:00,
2013-10-29 19:49:00,49.3,39.6,30.21,ESE,102,0.0,1.0,69,0.00,,,0.00,0,Wunderground v.1.15,2013-10-30 00:49:00,
2013-10-29 19:51:00,49.2,39.5,30.22,ESE,102,0.0,1.0,69,0.00,,,0.00,0,Wunderground v.1.15,2013-10-30 00:51:00,
2013-10-29 19:52:00,49.1,39.4,30.22,ESE,102,0.0,1.0,69,0.00,,,0.00,0,Wunderground v.1.15,2013-10-30 00:52:00,
2013-10-29 19:54:00,49.1,39.7,30.22,ESE,102,0.0,2.0,70,0.00,,,0.00,0,Wunderground v.1.15,2013-10-30 00:54:00,
2013-10-29 19:55:00,49.0,39.6,30.21,ESE,102,0.0,2.0,70,0.00,,,0.00,0,Wunderground v.1.15,2013-10-30 00:55:00,
2013-10-29 19:57:00,48.9,39.5,30.22,ESE,102,0.0,2.0,70,0.00,,,0.00,0,Wunderground v.1.15,2013-10-30 00:57:00,
2013-10-29 19:58:00,48.8,39.4,30.22,ESE,102,0.0,2.0,70,0.00,,,0.00,0,Wunderground v.1.15,2013-10-30 00:58:00,
2013-10-29 20:01:00,48.8,39.4,30.21,ESE,102,0.0,1.0,70,0.00,,,0.00,0,Wunderground v.1.15,2013-10-30 01:01:00,
2013-10-29 20:03:00,48.7,39.7,30.22,ESE,102,0.0,1.0,71,0.00,,,0.00,0,Wunderground v.1.15,2013-10-30 01:03:00,
2013-10-29 20:04:00,48.7,39.7,30.22,ESE,102,0.0,1.0,71,0.00,,,0.00,0,Wunderground v.1.15,2013-10-30 01:04:00,
2013-10-29 20:05:00,48.6,39.6,30.22,ESE,102,0.0,1.0,71,0.00,,,0.00,0,Wunderground v.1.15,2013-10-30 01:05:00,
2013-10-29 20:07:00,48.6,39.6,30.22,ESE,102,0.0,1.0,71,0.00,,,0.00,0,Wunderground v.1.15,2013-10-30 01:07:00,
2013-10-29 20:09:00,48.5,39.5,30.22,ESE,102,0.0,1.0,71,0.00,,,0.00,0,Wunderground v.1.15,2013-10-30 01:09:00,
2013-10-29 20:10:00,48.5,39.5,30.21,ESE,102,0.0,0.0,71,0.00,,,0.00,0,Wunderground v.1.15,2013-10-30 01:10:00,
2013-10-29 20:11:00,48.5,39.5,30.22,ESE,102,0.0,0.0,71,0.00,,,0.00,0,Wunderground v.1.15,2013-10-30 01:11:00,
2013-10-29 20:14:00,48.4,39.8,30.22,ESE,102,0.0,0.0,72,0.00,,,0.00,0,Wunderground v.1.15,2013-10-30 01:14:00,
2013-10-29 20:15:00,48.4,39.8,30.22,ESE,102,0.0,0.0,72,0.00,,,0.00,0,Wunderground v.1.15,2013-10-30 01:15:00,
2013-10-29 20:16:00,48.3,39.7,30.22,ESE,102,0.0,0.0,72,0.00,,,0.00,0,Wunderground v.1.15,2013-10-30 01:16:00,
2013-10-29 20:17:00,48.3,39.7,30.22,ESE,102,0.0,0.0,72,0.00,,,0.00,0,Wunderground v.1.15,2013-10-30 01:17:00,
2013-10-29 20:20:00,48.2,39.6,30.21,ESE,102,0.0,0.0,72,0.00,,,0.00,0,Wunderground v.1.15,2013-10-30 01:20:00,
2013-10-29 20:22:00,48.1,39.9,30.21,ESE,102,0.0,0.0,73,0.00,,,0.00,0,Wunderground v.1.15,2013-10-30 01:22:00,
2013-10-29 20:25:00,48.0,39.8,30.21,ESE,102,0.0,0.0,73,0.00,,,0.00,0,Wunderground v.1.15,2013-10-30 01:25:00,
2013-10-29 20:26:00,48.0,39.8,30.21,ESE,102,0.0,1.0,73,0.00,,,0.00,0,Wunderground v.1.15,2013-10-30 01:26:00,
2013-10-29 20:27:00,47.9,39.7,30.21,ESE,102,0.0,1.0,73,0.00,,,0.00,0,Wunderground v.1.15,2013-10-30 01:27:00,
2013-10-29 20:30:00,47.8,39.6,30.21,ESE,102,0.0,0.0,73,0.00,,,0.00,0,Wunderground v.1.15,2013-10-30 01:30:00,
2013-10-29 20:34:00,47.7,39.5,30.21,ESE,102,0.0,0.0,73,0.00,,,0.00,0,Wunderground v.1.15,2013-10-30 01:34:00,
2013-10-29 20:35:00,47.7,39.8,30.21,ESE,102,0.0,0.0,74,0.00,,,0.00,0,Wunderground v.1.15,2013-10-30 01:35:00,
2013-10-29 20:36:00,47.7,39.8,30.21,ESE,102,0.0,1.0,74,0.00,,,0.00,0,Wunderground v.1.15,2013-10-30 01:36:00,
2013-10-29 20:37:00,47.6,39.7,30.21,ESE,102,0.0,1.0,74,0.00,,,0.00,0,Wunderground v.1.15,2013-10-30 01:37:00,
2013-10-29 20:40:00,47.4,39.9,30.21,ESE,102,0.0,1.0,75,0.00,,,0.00,0,Wunderground v.1.15,2013-10-30 01:40:00,
2013-10-29 20:44:00,47.3,39.8,30.21,ESE,102,1.0,2.0,75,0.00,,,0.00,0,Wunderground v.1.15,2013-10-30 01:44:00,
2013-10-29 20:45:00,47.3,39.8,30.21,ESE,102,1.0,2.0,75,0.00,,,0.00,0,Wunderground v.1.15,2013-10-30 01:45:00,
2013-10-29 20:46:00,47.2,39.7,30.21,ESE,102,1.0,2.0,75,0.00,,,0.00,0,Wunderground v.1.15,2013-10-30 01:46:00,
2013-10-29 20:47:00,47.2,39.7,30.21,ESE,102,1.0,2.0,75,0.00,,,0.00,0,Wunderground v.1.15,2013-10-30 01:47:00,
2013-10-29 20:51:00,47.3,39.8,30.21,ESE,102,1.0,1.0,75,0.00,,,0.00,0,Wunderground v.1.15,2013-10-30 01:51:00,
2013-10-29 20:52:00,47.2,39.7,30.21,ESE,102,1.0,1.0,75,0.00,,,0.00,0,Wunderground v.1.15,2013-10-30 01:52:00,
2013-10-29 20:53:00,47.2,39.7,30.21,ESE,102,1.0,1.0,75,0.00,,,0.00,0,Wunderground v.1.15,2013-10-30 01:53:00,
2013-10-29 20:54:00,47.2,39.7,30.21,ESE,102,1.0,1.0,75,0.00,,,0.00,0,Wunderground v.1.15,2013-10-30 01:54:00,
2013-10-29 20:56:00,47.2,39.7,30.21,ESE,102,1.0,1.0,75,0.00,,,0.00,0,Wunderground v.1.15,2013-10-30 01:56:00,
2013-10-29 20:57:00,47.2,39.7,30.21,ESE,102,1.0,1.0,75,0.00,,,0.00,0,Wunderground v.1.15,2013-10-30 01:57:00,
2013-10-29 20:59:00,47.1,39.6,30.21,ESE,102,0.0,1.0,75,0.00,,,0.00,0,Wunderground v.1.15,2013-10-30 01:59:00,
2013-10-29 21:01:00,47.1,39.6,30.21,ESE,102,0.0,0.0,75,0.00,,,0.00,0,Wunderground v.1.15,2013-10-30 02:01:00,
2013-10-29 21:02:00,47.1,39.6,30.20,ESE,102,0.0,0.0,75,0.00,,,0.00,0,Wunderground v.1.15,2013-10-30 02:02:00,
2013-10-29 21:04:00,47.0,39.5,30.21,ESE,102,0.0,0.0,75,0.00,,,0.00,0,Wunderground v.1.15,2013-10-30 02:04:00,
2013-10-29 21:09:00,47.0,39.5,30.21,ESE,102,0.0,0.0,75,0.00,,,0.00,0,Wunderground v.1.15,2013-10-30 02:09:00,
2013-10-29 21:11:00,46.9,39.4,30.21,ESE,102,0.0,0.0,75,0.00,,,0.00,0,Wunderground v.1.15,2013-10-30 02:11:00,
2013-10-29 21:14:00,46.8,39.6,30.21,ESE,102,0.0,0.0,76,0.00,,,0.00,0,Wunderground v.1.15,2013-10-30 02:14:00,
2013-10-29 21:16:00,46.7,39.5,30.21,ESE,102,0.0,0.0,76,0.00,,,0.00,0,Wunderground v.1.15,2013-10-30 02:16:00,
2013-10-29 21:19:00,46.6,39.4,30.21,ESE,102,0.0,0.0,76,0.00,,,0.00,0,Wunderground v.1.15,2013-10-30 02:19:00,
2013-10-29 21:21:00,46.5,39.7,30.21,ESE,102,0.0,0.0,77,0.00,,,0.00,0,Wunderground v.1.15,2013-10-30 02:21:00,
2013-10-29 21:22:00,46.5,39.7,30.21,ESE,102,0.0,0.0,77,0.00,,,0.00,0,Wunderground v.1.15,2013-10-30 02:22:00,
2013-10-29 21:24:00,46.4,39.6,30.21,ESE,102,0.0,0.0,77,0.00,,,0.00,0,Wunderground v.1.15,2013-10-30 02:24:00,
2013-10-29 21:27:00,46.3,39.5,30.21,ESE,102,0.0,0.0,77,0.00,,,0.00,0,Wunderground v.1.15,2013-10-30 02:27:00,
2013-10-29 21:29:00,46.2,39.4,30.21,ESE,102,0.0,1.0,77,0.00,,,0.00,0,Wunderground v.1.15,2013-10-30 02:29:00,
2013-10-29 21:32:00,46.1,39.3,30.20,ESE,102,0.0,0.0,77,0.00,,,0.00,0,Wunderground v.1.15,2013-10-30 02:32:00,
2013-10-29 21:34:00,46.1,39.3,30.20,ESE,102,0.0,0.0,77,0.00,,,0.00,0,Wunderground v.1.15,2013-10-30 02:34:00,
2013-10-29 21:39:00,46.1,39.3,30.20,ESE,102,0.0,0.0,77,0.00,,,0.00,0,Wunderground v.1.15,2013-10-30 02:39:00,
2013-10-29 21:40:00,46.1,39.3,30.20,ESE,102,0.0,0.0,77,0.00,,,0.00,0,Wunderground v.1.15,2013-10-30 02:40:00,
2013-10-29 21:41:00,46.1,39.3,30.20,ESE,102,0.0,0.0,77,0.00,,,0.00,0,Wunderground v.1.15,2013-10-30 02:41:00,
2013-10-29 21:44:00,46.1,39.6,30.20,ESE,102,0.0,1.0,78,0.00,,,0.00,0,Wunderground v.1.15,2013-10-30 02:44:00,
2013-10-29 21:45:00,46.2,39.7,30.20,ESE,102,0.0,1.0,78,0.00,,,0.00,0,Wunderground v.1.15,2013-10-30 02:45:00,
2013-10-29 21:46:00,46.2,39.7,30.20,ESE,102,0.0,1.0,78,0.00,,,0.00,0,Wunderground v.1.15,2013-10-30 02:46:00,
2013-10-29 21:48:00,46.2,39.7,30.20,ESE,102,0.0,4.0,78,0.00,,,0.00,0,Wunderground v.1.15,2013-10-30 02:48:00,
2013-10-29 21:50:00,46.3,39.8,30.20,ESE,102,0.0,0.0,78,0.00,,,0.00,0,Wunderground v.1.15,2013-10-30 02:50:00,
2013-10-29 21:51:00,46.3,39.5,30.19,ESE,102,0.0,2.0,77,0.00,,,0.00,0,Wunderground v.1.15,2013-10-30 02:51:00,
2013-10-29 21:52:00,46.4,39.6,30.19,ESE,105,0.0,2.0,77,0.00,,,0.00,0,Wunderground v.1.15,2013-10-30 02:52:00,
2013-10-29 21:54:00,46.5,39.7,30.19,SE,126,1.0,2.0,77,0.00,,,0.00,0,Wunderground v.1.15,2013-10-30 02:54:00,
2013-10-29 21:56:00,46.7,39.9,30.19,SSE,161,1.0,4.0,77,0.00,,,0.00,0,Wunderground v.1.15,2013-10-30 02:56:00,
2013-10-29 21:57:00,46.8,40.0,30.19,South,173,1.0,4.0,77,0.00,,,0.00,0,Wunderground v.1.15,2013-10-30 02:57:00,
2013-10-29 21:59:00,47.0,40.2,30.19,SSE,148,2.0,6.0,77,0.00,,,0.00,0,Wunderground v.1.15,2013-10-30 02:59:00,
2013-10-29 22:01:00,47.1,39.9,30.19,South,181,2.0,4.0,76,0.00,,,0.00,0,Wunderground v.1.15,2013-10-30 03:01:00,
2013-10-29 22:05:00,47.4,40.2,30.19,SE,144,4.0,9.0,76,0.00,,,0.00,0,Wunderground v.1.15,2013-10-30 03:05:00,
2013-10-29 22:06:00,47.4,40.2,30.19,SSE,148,4.0,9.0,76,0.00,,,0.00,0,Wunderground v.1.15,2013-10-30 03:06:00,
2013-10-29 22:07:00,47.5,40.0,30.19,SSE,151,4.0,9.0,75,0.00,,,0.00,0,Wunderground v.1.15,2013-10-30 03:07:00,
2013-10-29 22:09:00,47.5,40.0,30.19,South,171,4.0,9.0,75,0.00,,,0.00,0,Wunderground v.1.15,2013-10-30 03:09:00,
2013-10-29 22:10:00,47.5,40.0,30.19,South,178,4.0,4.0,75,0.00,,,0.00,0,Wunderground v.1.15,2013-10-30 03:10:00,
2013-10-29 22:14:00,47.6,40.1,30.19,South,180,3.0,8.0,75,0.00,,,0.00,0,Wunderground v.1.15,2013-10-30 03:14:00,
2013-10-29 22:15:00,47.7,40.2,30.19,South,171,3.0,8.0,75,0.00,,,0.00,0,Wunderground v.1.15,2013-10-30 03:15:00,
2013-10-29 22:16:00,47.7,40.2,30.19,SSE,163,2.0,8.0,75,0.00,,,0.00,0,Wunderground v.1.15,2013-10-30 03:16:00,
2013-10-29 22:19:00,47.7,40.2,30.19,SSE,156,2.0,8.0,75,0.00,,,0.00,0,Wunderground v.1.15,2013-10-30 03:19:00,
2013-10-29 22:21:00,47.8,40.3,30.19,SSE,148,2.0,2.0,75,0.00,,,0.00,0,Wunderground v.1.15,2013-10-30 03:21:00,
2013-10-29 22:22:00,47.7,40.2,30.19,ESE,114,2.0,4.0,75,0.00,,,0.00,0,Wunderground v.1.15,2013-10-30 03:22:00,
2013-10-29 22:25:00,47.7,40.2,30.19,SSE,161,2.0,4.0,75,0.00,,,0.00,0,Wunderground v.1.15,2013-10-30 03:25:00,
2013-10-29 22:27:00,47.7,40.2,30.19,South,178,3.0,6.0,75,0.00,,,0.00,0,Wunderground v.1.15,2013-10-30 03:27:00,
2013-10-29 22:30:00,47.7,40.2,30.18,SSE,155,3.0,3.0,75,0.00,,,0.00,0,Wunderground v.1.15,2013-10-30 03:30:00,
2013-10-29 22:32:00,47.7,40.2,30.18,SSE,155,3.0,3.0,75,0.00,,,0.00,0,Wunderground v.1.15,2013-10-30 03:32:00,
2013-10-29 22:33:00,47.7,40.2,30.18,SSE,155,3.0,3.0,75,0.00,,,0.00,0,Wunderground v.1.15,2013-10-30 03:33:00,
2013-10-29 22:35:00,47.7,40.2,30.18,SSE,167,3.0,9.0,75,0.00,,,0.00,0,Wunderground v.1.15,2013-10-30 03:35:00,
2013-10-29 22:36:00,47.7,40.2,30.18,South,175,3.0,9.0,75,0.00,,,0.00,0,Wunderground v.1.15,2013-10-30 03:36:00,
2013-10-29 22:37:00,47.7,40.2,30.18,South,175,3.0,9.0,75,0.00,,,0.00,0,Wunderground v.1.15,2013-10-30 03:37:00,
2013-10-29 22:39:00,47.7,40.2,30.18,SSE,160,3.0,9.0,75,0.00,,,0.00,0,Wunderground v.1.15,2013-10-30 03:39:00,
2013-10-29 22:41:00,47.7,40.2,30.18,South,170,3.0,3.0,75,0.00,,,0.00,0,Wunderground v.1.15,2013-10-30 03:41:00,
2013-10-29 22:44:00,47.7,40.2,30.18,SSE,150,3.0,3.0,75,0.00,,,0.00,0,Wunderground v.1.15,2013-10-30 03:44:00,
2013-10-29 22:45:00,47.7,40.2,30.18,SSE,150,2.0,3.0,75,0.00,,,0.00,0,Wunderground v.1.15,2013-10-30 03:45:00,
2013-10-29 22:46:00,47.7,40.2,30.18,SSE,150,2.0,3.0,75,0.00,,,0.00,0,Wunderground v.1.15,2013-10-30 03:46:00,
2013-10-29 22:47:00,47.7,40.2,30.18,SSE,150,2.0,3.0,75,0.00,,,0.00,0,Wunderground v.1.15,2013-10-30 03:47:00,
2013-10-29 22:51:00,47.7,40.2,30.18,SSE,150,1.0,4.0,75,0.00,,,0.00,0,Wunderground v.1.15,2013-10-30 03:51:00,
2013-10-29 22:54:00,47.7,40.2,30.18,SSE,150,1.0,4.0,75,0.00,,,0.00,0,Wunderground v.1.15,2013-10-30 03:54:00,
2013-10-29 22:59:00,47.7,40.2,30.18,SSE,150,1.0,4.0,75,0.00,,,0.00,0,Wunderground v.1.15,2013-10-30 03:59:00,
2013-10-29 23:01:00,47.8,40.3,30.18,SSE,149,1.0,5.0,75,0.00,,,0.00,0,Wunderground v.1.15,2013-10-30 04:01:00,
2013-10-29 23:02:00,47.7,40.2,30.17,SSE,149,1.0,5.0,75,0.00,,,0.00,0,Wunderground v.1.15,2013-10-30 04:02:00,
2013-10-29 23:03:00,47.8,40.3,30.17,SSE,149,1.0,5.0,75,0.00,,,0.00,0,Wunderground v.1.15,2013-10-30 04:03:00,
2013-10-29 23:04:00,47.8,40.3,30.17,SSE,149,1.0,5.0,75,0.00,,,0.00,0,Wunderground v.1.15,2013-10-30 04:04:00,
2013-10-29 23:05:00,47.7,40.2,30.17,SSE,149,1.0,5.0,75,0.00,,,0.00,0,Wunderground v.1.15,2013-10-30 04:05:00,
2013-10-29 23:09:00,47.7,40.2,30.17,SSE,149,2.0,5.0,75,0.00,,,0.00,0,Wunderground v.1.15,2013-10-30 04:09:00,
2013-10-29 23:10:00,47.7,40.2,30.17,SSE,149,2.0,2.0,75,0.00,,,0.00,0,Wunderground v.1.15,2013-10-30 04:10:00,
2013-10-29 23:11:00,47.7,40.2,30.17,SSE,149,2.0,2.0,75,0.00,,,0.00,0,Wunderground v.1.15,2013-10-30 04:11:00,
2013-10-29 23:12:00,47.7,40.2,30.17,SSE,149,1.0,2.0,75,0.00,,,0.00,0,Wunderground v.1.15,2013-10-30 04:12:00,
2013-10-29 23:17:00,47.6,40.1,30.17,SSE,149,1.0,2.0,75,0.00,,,0.00,0,Wunderground v.1.15,2013-10-30 04:17:00,
2013-10-29 23:18:00,47.6,40.1,30.16,SSE,149,1.0,2.0,75,0.00,,,0.00,0,Wunderground v.1.15,2013-10-30 04:18:00,
2013-10-29 23:19:00,47.6,40.1,30.16,SSE,149,1.0,2.0,75,0.00,,,0.00,0,Wunderground v.1.15,2013-10-30 04:19:00,
2013-10-29 23:20:00,47.6,40.1,30.16,SSE,149,0.0,0.0,75,0.00,,,0.00,0,Wunderground v.1.15,2013-10-30 04:20:00,
2013-10-29 23:22:00,47.6,40.1,30.16,SSE,149,0.0,0.0,75,0.00,,,0.00,0,Wunderground v.1.15,2013-10-30 04:22:00,
2013-10-29 23:24:00,47.6,40.1,30.16,SSE,149,0.0,0.0,75,0.00,,,0.00,0,Wunderground v.1.15,2013-10-30 04:24:00,
2013-10-29 23:25:00,47.6,40.1,30.17,SSE,149,0.0,0.0,75,0.00,,,0.00,0,Wunderground v.1.15,2013-10-30 04:25:00,
2013-10-29 23:29:00,47.6,40.1,30.17,SSE,149,0.0,0.0,75,0.00,,,0.00,0,Wunderground v.1.15,2013-10-30 04:29:00,
2013-10-29 23:31:00,47.6,40.1,30.17,SSE,149,0.0,0.0,75,0.00,,,0.00,0,Wunderground v.1.15,2013-10-30 04:31:00,
2013-10-29 23:32:00,47.6,40.1,30.17,SSE,149,0.0,0.0,75,0.00,,,0.00,0,Wunderground v.1.15,2013-10-30 04:32:00,
2013-10-29 23:34:00,47.6,40.1,30.16,SSE,149,0.0,0.0,75,0.00,,,0.00,0,Wunderground v.1.15,2013-10-30 04:34:00,
2013-10-29 23:39:00,47.7,40.5,30.17,SSE,149,0.0,1.0,76,0.00,,,0.00,0,Wunderground v.1.15,2013-10-30 04:39:00,
2013-10-29 23:40:00,47.7,40.5,30.16,SSE,149,0.0,0.0,76,0.00,,,0.00,0,Wunderground v.1.15,2013-10-30 04:40:00,
2013-10-29 23:41:00,47.7,40.5,30.17,SSE,149,0.0,0.0,76,0.00,,,0.00,0,Wunderground v.1.15,2013-10-30 04:41:00,
2013-10-29 23:44:00,47.7,40.5,30.17,SSE,149,0.0,0.0,76,0.00,,,0.00,0,Wunderground v.1.15,2013-10-30 04:44:00,
2013-10-29 23:46:00,47.7,40.5,30.17,SSE,149,0.0,1.0,76,0.00,,,0.00,0,Wunderground v.1.15,2013-10-30 04:46:00,
2013-10-29 23:47:00,47.7,40.5,30.17,SSE,149,0.0,1.0,76,0.00,,,0.00,0,Wunderground v.1.15,2013-10-30 04:47:00,
2013-10-29 23:49:00,47.8,40.6,30.17,SSE,149,0.0,1.0,76,0.00,,,0.00,0,Wunderground v.1.15,2013-10-30 04:49:00,
2013-10-29 23:50:00,47.8,40.6,30.17,SSE,149,0.0,0.0,76,0.00,,,0.00,0,Wunderground v.1.15,2013-10-30 04:50:00,
2013-10-29 23:52:00,47.8,40.6,30.16,SSE,149,0.0,1.0,76,0.00,,,0.00,0,Wunderground v.1.15,2013-10-30 04:52:00,
2013-10-29 23:54:00,47.8,40.6,30.16,SSE,149,1.0,1.0,76,0.00,,,0.00,0,Wunderground v.1.15,2013-10-30 04:54:00,
2013-10-29 23:56:00,47.9,40.4,30.16,ESE,121,1.0,9.0,75,0.00,,,0.00,0,Wunderground v.1.15,2013-10-30 04:56:00,
2013-10-29 23:57:00,47.9,40.4,30.16,ESE,122,1.0,9.0,75,0.00,,,0.00,0,Wunderground v.1.15,2013-10-30 04:57:00,
2013-10-29 23:59:00,48.0,40.5,30.16,ESE,121,2.0,9.0,75,0.00,,,0.00,0,Wunderground v.1.15,2013-10-30 04:59:00,